SRR555 FMMI-LSGG

Flight info

Callsign SRR555
Flight time 9h 38m
Altitude 28000
Route KEKIN1E TN UA401 KINAN UT913 GABSO UL445 NV UA727 NAK UM304 EPLAS/N0507F300 P568 ORNAT B21 KARUB/N0488F320 B21 INDOT DCT VESOD DCT UXUTA DCT DORAS DCT MAMAR DCT UNITA DCT KUKEV DCT BANKO
Aircraft B77F/H-SDE1E2E3FGHIJ2J3J4J5M1RWXY/LB1D1

Departure

Time 2026-04-25 06:54
Airport Ivato International Airport (FMMI)

Arrival

Time 2026-04-25 16:32
Airport Geneva International Airport (LSGG)
Time Latitude Longitude Altitude Speed Heading
2026-04-25 06:45 -18.79958 47.47911 4169 ft 0 kts 241°
2026-04-25 06:47 -18.79958 47.47910 4169 ft 1 kts 242°
2026-04-25 06:47 -18.79952 47.47890 4169 ft 3 kts 311°
2026-04-25 06:48 -18.79931 47.47878 4170 ft 4 kts 339°
2026-04-25 06:48 -18.79906 47.47874 4170 ft 4 kts 356°
2026-04-25 06:48 -18.79873 47.47857 4171 ft 8 kts 309°
2026-04-25 06:48 -18.79853 47.47790 4173 ft 10 kts 284°
2026-04-25 06:49 -18.79835 47.47717 4173 ft 10 kts 282°
2026-04-25 06:49 -18.79823 47.47642 4174 ft 10 kts 286°
2026-04-25 06:49 -18.79771 47.47595 4176 ft 10 kts 347°
2026-04-25 06:49 -18.79700 47.47602 4179 ft 10 kts
2026-04-25 06:50 -18.79646 47.47559 4180 ft 12 kts 292°
2026-04-25 06:50 -18.79628 47.47451 4183 ft 18 kts 278°
2026-04-25 06:50 -18.79609 47.47316 4183 ft 19 kts 279°
2026-04-25 06:50 -18.79589 47.47182 4189 ft 19 kts 279°
2026-04-25 06:51 -18.79569 47.47047 4192 ft 19 kts 279°
2026-04-25 06:51 -18.79548 47.46913 4196 ft 19 kts 279°
2026-04-25 06:51 -18.79528 47.46778 4201 ft 19 kts 278°
2026-04-25 06:51 -18.79508 47.46644 4204 ft 19 kts 279°
2026-04-25 06:52 -18.79487 47.46521 4207 ft 12 kts 293°
2026-04-25 06:52 -18.79446 47.46470 4209 ft 4 kts 282°
2026-04-25 06:52 -18.79470 47.46462 4209 ft 5 kts 156°
2026-04-25 06:52 -18.79483 47.46486 4208 ft 2 kts 101°
2026-04-25 06:53 -18.79483 47.46488 4209 ft 0 kts 100°
2026-04-25 06:53 -18.79506 47.46637 4204 ft 56 kts 99°
2026-04-25 06:53 -18.79607 47.47310 4184 ft 128 kts 99°
2026-04-25 06:54 -18.79782 47.48474 4156 ft 191 kts 100°
2026-04-25 06:54 -18.79993 47.49920 4455 ft 208 kts 101°
2026-04-25 06:54 -18.80238 47.51483 5064 ft 225 kts 101°
2026-04-25 06:54 -18.80509 47.53184 5512 ft 244 kts 101°
2026-04-25 06:55 -18.80765 47.55045 5653 ft 262 kts 94°
2026-04-25 06:55 -18.80426 47.56958 5983 ft 274 kts 64°
2026-04-25 06:55 -18.79215 47.58512 6600 ft 281 kts 40°
2026-04-25 06:55 -18.77430 47.59455 6955 ft 294 kts 14°
2026-04-25 06:56 -18.75374 47.59536 7502 ft 303 kts 350°
2026-04-25 06:56 -18.74041 47.59073 7842 ft 307 kts 332°
2026-04-25 06:56 -18.72328 47.57735 8409 ft 309 kts 314°
2026-04-25 06:56 -18.70898 47.56031 8942 ft 311 kts 309°
2026-04-25 06:57 -18.69520 47.54270 9489 ft 312 kts 309°
2026-04-25 06:57 -18.68136 47.52470 9962 ft 319 kts 309°
2026-04-25 06:57 -18.66742 47.50642 10492 ft 320 kts 309°
2026-04-25 06:57 -18.65318 47.48774 10692 ft 336 kts 309°
2026-04-25 06:58 -18.63811 47.46804 10802 ft 354 kts 309°
2026-04-25 06:58 -18.62221 47.44728 10953 ft 372 kts 309°
2026-04-25 06:58 -18.60558 47.42562 11170 ft 386 kts 309°
2026-04-25 06:58 -18.58846 47.40336 11571 ft 395 kts 309°
2026-04-25 06:59 -18.57100 47.38068 11972 ft 402 kts 309°
2026-04-25 06:59 -18.55328 47.35766 12552 ft 404 kts 309°
2026-04-25 06:59 -18.53561 47.33473 13309 ft 402 kts 309°
2026-04-25 06:59 -18.51809 47.31198 13755 ft 409 kts 309°
2026-04-25 07:00 -18.50009 47.28864 14211 ft 413 kts 309°
2026-04-25 07:00 -18.48177 47.26489 14568 ft 418 kts 309°
2026-04-25 07:00 -18.46350 47.24120 15217 ft 416 kts 309°
2026-04-25 07:00 -18.44434 47.21805 15526 ft 422 kts 316°
2026-04-25 07:01 -18.42167 47.19800 15826 ft 428 kts 323°
2026-04-25 07:01 -18.39755 47.17966 16392 ft 428 kts 324°
2026-04-25 07:01 -18.37346 47.16120 16861 ft 429 kts 323°
2026-04-25 07:01 -18.34959 47.14198 17261 ft 434 kts 322°
2026-04-25 07:02 -18.32566 47.12233 17594 ft 436 kts 324°
2026-04-25 07:02 -18.29917 47.10660 17806 ft 440 kts 342°
2026-04-25 07:02 -18.27007 47.09829 18147 ft 440 kts 347°
2026-04-25 07:02 -18.24017 47.09044 18484 ft 444 kts 346°
2026-04-25 07:03 -18.21000 47.08221 18831 ft 447 kts 345°
2026-04-25 07:03 -18.17991 47.07371 19256 ft 448 kts 345°
2026-04-25 07:03 -18.14981 47.06498 19617 ft 450 kts 345°
2026-04-25 07:03 -18.11955 47.05601 19946 ft 453 kts 344°
2026-04-25 07:04 -18.08910 47.04696 20347 ft 454 kts 344°
2026-04-25 07:04 -18.05892 47.03802 20698 ft 457 kts 344°
2026-04-25 07:04 -18.02823 47.02896 21062 ft 459 kts 344°
2026-04-25 07:04 -17.99742 47.01988 21405 ft 461 kts 344°
2026-04-25 07:05 -17.96642 47.01074 21723 ft 464 kts 344°
2026-04-25 07:05 -17.93523 47.00155 22075 ft 466 kts 344°
2026-04-25 07:05 -17.90388 46.99233 22395 ft 469 kts 344°
2026-04-25 07:05 -17.87237 46.98309 22736 ft 471 kts 344°
2026-04-25 07:06 -17.84069 46.97381 23075 ft 473 kts 344°
2026-04-25 07:06 -17.80891 46.96450 23369 ft 475 kts 344°
2026-04-25 07:06 -17.77693 46.95514 23683 ft 477 kts 344°
2026-04-25 07:06 -17.74485 46.94574 23933 ft 480 kts 344°
2026-04-25 07:07 -17.71309 46.93645 24224 ft 481 kts 344°
2026-04-25 07:07 -17.68086 46.92701 24541 ft 481 kts 343°
2026-04-25 07:07 -17.64859 46.91757 24819 ft 483 kts 343°
2026-04-25 07:07 -17.61621 46.90810 25129 ft 483 kts 343°
2026-04-25 07:08 -17.58375 46.89861 25387 ft 485 kts 343°
2026-04-25 07:08 -17.55113 46.88907 25665 ft 486 kts 343°
2026-04-25 07:08 -17.51854 46.87955 25946 ft 487 kts 343°
2026-04-25 07:08 -17.48585 46.87000 26186 ft 488 kts 343°
2026-04-25 07:09 -17.45313 46.86045 26502 ft 489 kts 343°
2026-04-25 07:09 -17.42034 46.85088 26779 ft 490 kts 343°
2026-04-25 07:09 -17.38743 46.84128 27062 ft 490 kts 343°
2026-04-25 07:09 -17.35450 46.83167 27342 ft 492 kts 343°
2026-04-25 07:10 -17.32151 46.82205 27605 ft 493 kts 343°
2026-04-25 07:10 -17.28882 46.81253 27882 ft 493 kts 343°
2026-04-25 07:10 -17.25574 46.80289 28135 ft 494 kts 343°
2026-04-25 07:10 -17.22252 46.79322 28392 ft 495 kts 343°
2026-04-25 07:11 -17.18919 46.78352 28635 ft 497 kts 343°
2026-04-25 07:11 -17.15586 46.77382 28872 ft 498 kts 343°
2026-04-25 07:11 -17.12243 46.76410 29089 ft 499 kts 343°
2026-04-25 07:11 -17.08883 46.75433 29314 ft 500 kts 343°
2026-04-25 07:12 -17.05526 46.74457 29530 ft 501 kts 343°
2026-04-25 07:12 -16.98788 46.72500 29964 ft 503 kts 343°
2026-04-25 07:12 -16.95455 46.71532 29993 ft 503 kts 343°
2026-04-25 07:13 -16.88729 46.69580 30011 ft 500 kts 343°
2026-04-25 07:13 -16.82036 46.67640 30013 ft 498 kts 343°
2026-04-25 07:14 -16.75347 46.65702 30009 ft 498 kts 343°
2026-04-25 07:14 -16.68660 46.63766 30010 ft 498 kts 343°
2026-04-25 07:15 -16.62005 46.61840 30009 ft 498 kts 343°
2026-04-25 07:15 -16.55315 46.59905 30010 ft 499 kts 343°
2026-04-25 07:16 -16.48609 46.57967 30004 ft 500 kts 343°
2026-04-25 07:16 -16.41897 46.56032 30006 ft 500 kts 343°
2026-04-25 07:17 -16.35191 46.54087 29992 ft 500 kts 343°
2026-04-25 07:17 -16.28470 46.52143 29992 ft 500 kts 343°
2026-04-25 07:18 -16.21766 46.50210 29990 ft 499 kts 343°
2026-04-25 07:18 -16.15118 46.48293 29988 ft 499 kts 343°
2026-04-25 07:19 -16.08431 46.46365 29986 ft 498 kts 343°
2026-04-25 07:19 -16.01756 46.44441 29991 ft 497 kts 343°
2026-04-25 07:20 -15.95095 46.42523 29987 ft 497 kts 343°
2026-04-25 07:20 -15.88432 46.40605 29985 ft 496 kts 343°
2026-04-25 07:21 -15.81767 46.38688 29987 ft 496 kts 343°
2026-04-25 07:21 -15.75138 46.36782 29995 ft 497 kts 343°
2026-04-25 07:22 -15.68525 46.34709 29985 ft 496 kts 336°
2026-04-25 07:22 -15.62434 46.31372 29996 ft 495 kts 325°
2026-04-25 07:23 -15.56983 46.27015 30001 ft 494 kts 321°
2026-04-25 07:23 -15.51605 46.22552 29988 ft 495 kts 321°
2026-04-25 07:24 -15.46233 46.18135 29974 ft 496 kts 321°
2026-04-25 07:24 -15.40807 46.13707 29972 ft 497 kts 321°
2026-04-25 07:25 -15.35372 46.09283 29970 ft 497 kts 321°
2026-04-25 07:25 -15.29930 46.04856 29976 ft 497 kts 321°
2026-04-25 07:26 -15.24482 46.00426 29975 ft 497 kts 321°
2026-04-25 07:26 -15.19040 45.96002 29970 ft 496 kts 321°
2026-04-25 07:27 -15.13638 45.91614 29965 ft 496 kts 321°
2026-04-25 07:27 -15.08216 45.87213 29972 ft 495 kts 321°
2026-04-25 07:28 -15.02796 45.82816 29968 ft 495 kts 321°
2026-04-25 07:28 -14.97377 45.78422 29972 ft 495 kts 321°
2026-04-25 07:29 -14.91954 45.74030 29975 ft 494 kts 321°
2026-04-25 07:29 -14.86548 45.69653 29964 ft 493 kts 321°
2026-04-25 07:30 -14.81149 45.65284 29972 ft 492 kts 321°
2026-04-25 07:30 -14.75786 45.60948 29964 ft 492 kts 321°
2026-04-25 07:31 -14.70380 45.56580 29971 ft 492 kts 321°
2026-04-25 07:31 -14.64979 45.52219 29972 ft 493 kts 321°
2026-04-25 07:32 -14.59569 45.47853 29964 ft 493 kts 322°
2026-04-25 07:32 -14.54144 45.43478 29972 ft 494 kts 321°
2026-04-25 07:33 -14.48754 45.39133 29964 ft 494 kts 322°
2026-04-25 07:33 -14.43327 45.34762 29969 ft 494 kts 321°
2026-04-25 07:34 -14.37901 45.30395 29975 ft 494 kts 321°
2026-04-25 07:34 -14.32483 45.26036 29960 ft 494 kts 322°
2026-04-25 07:35 -14.27057 45.21674 29967 ft 494 kts 322°
2026-04-25 07:35 -14.21635 45.17319 29961 ft 494 kts 321°
2026-04-25 07:36 -14.16213 45.12965 29963 ft 494 kts 322°
2026-04-25 07:36 -14.10816 45.08634 29978 ft 494 kts 322°
2026-04-25 07:37 -14.05388 45.04281 29967 ft 494 kts 322°
2026-04-25 07:37 -13.99955 44.99927 29972 ft 495 kts 321°
2026-04-25 07:38 -13.94516 44.95571 29964 ft 495 kts 321°
2026-04-25 07:38 -13.89077 44.91217 29964 ft 495 kts 321°
2026-04-25 07:39 -13.83636 44.86864 29974 ft 496 kts 321°
2026-04-25 07:39 -13.78186 44.82508 29963 ft 496 kts 321°
2026-04-25 07:40 -13.72767 44.78173 29973 ft 496 kts 321°
2026-04-25 07:40 -13.67285 44.73796 29968 ft 497 kts 321°
2026-04-25 07:41 -13.61853 44.69463 29962 ft 497 kts 322°
2026-04-25 07:41 -13.56379 44.65099 29967 ft 497 kts 321°
2026-04-25 07:42 -13.50916 44.60744 29967 ft 497 kts 321°
2026-04-25 07:42 -13.45475 44.56409 29976 ft 497 kts 321°
2026-04-25 07:43 -13.40011 44.52058 29967 ft 496 kts 321°
2026-04-25 07:43 -13.34544 44.47708 29957 ft 496 kts 322°
2026-04-25 07:44 -13.29079 44.43371 29969 ft 496 kts 321°
2026-04-25 07:44 -13.23658 44.39070 29964 ft 495 kts 321°
2026-04-25 07:45 -13.18205 44.34744 29971 ft 495 kts 321°
2026-04-25 07:45 -13.12755 44.30423 29970 ft 494 kts 322°
2026-04-25 07:46 -13.08194 44.26808 29962 ft 495 kts 322°
2026-04-25 07:46 -13.02778 44.22517 29984 ft 495 kts 322°
2026-04-25 07:47 -12.97317 44.18194 29970 ft 495 kts 322°
2026-04-25 07:47 -12.91865 44.13881 29955 ft 495 kts 322°
2026-04-25 07:48 -12.86404 44.09563 29970 ft 495 kts 322°
2026-04-25 07:48 -12.80978 44.05274 29965 ft 495 kts 322°
2026-04-25 07:49 -12.75507 44.00953 29980 ft 496 kts 322°
2026-04-25 07:49 -12.70048 43.96643 29970 ft 495 kts 322°
2026-04-25 07:50 -12.64575 43.92329 29969 ft 496 kts 322°
2026-04-25 07:50 -12.59100 43.88005 29978 ft 497 kts 322°
2026-04-25 07:51 -12.53645 43.83703 29968 ft 498 kts 322°
2026-04-25 07:51 -12.48138 43.79368 29970 ft 499 kts 322°
2026-04-25 07:52 -12.42638 43.75036 29967 ft 499 kts 322°
2026-04-25 07:52 -12.37138 43.70705 29965 ft 499 kts 322°
2026-04-25 07:53 -12.31667 43.66409 29974 ft 499 kts 322°
2026-04-25 07:53 -12.26157 43.62082 29970 ft 499 kts 323°
2026-04-25 07:54 -12.20651 43.57760 29961 ft 499 kts 323°
2026-04-25 07:54 -12.15131 43.53421 29970 ft 500 kts 323°
2026-04-25 07:55 -12.09612 43.49084 29972 ft 501 kts 323°
2026-04-25 07:55 -12.04072 43.44743 29974 ft 502 kts 323°
2026-04-25 07:56 -11.98522 43.40401 29962 ft 503 kts 324°
2026-04-25 07:56 -11.92965 43.36043 29971 ft 504 kts 323°
2026-04-25 07:57 -11.87391 43.31671 29972 ft 506 kts 324°
2026-04-25 07:57 -11.81799 43.27298 29969 ft 507 kts 324°
2026-04-25 07:58 -11.76234 43.22948 29962 ft 507 kts 324°
2026-04-25 07:58 -11.70622 43.18562 29967 ft 507 kts 324°
2026-04-25 07:59 -11.65014 43.14180 29963 ft 507 kts 323°
2026-04-25 07:59 -11.59445 43.09830 29963 ft 506 kts 324°
2026-04-25 08:00 -11.53859 43.05470 29966 ft 505 kts 324°
2026-04-25 08:00 -11.48271 43.01110 29970 ft 505 kts 324°
2026-04-25 08:01 -11.42687 42.96756 29967 ft 505 kts 324°
2026-04-25 08:01 -11.37099 42.92401 29963 ft 505 kts 324°
2026-04-25 08:02 -11.31511 42.88048 29964 ft 505 kts 324°
2026-04-25 08:02 -11.25924 42.83698 29964 ft 505 kts 324°
2026-04-25 08:03 -11.20336 42.79350 29965 ft 505 kts 324°
2026-04-25 08:03 -11.14744 42.75000 29964 ft 506 kts 324°
2026-04-25 08:04 -11.09188 42.70681 29966 ft 506 kts 324°
2026-04-25 08:04 -11.03590 42.66330 29963 ft 506 kts 324°
2026-04-25 08:05 -10.97988 42.61980 29963 ft 506 kts 324°
2026-04-25 08:05 -10.92382 42.57627 29963 ft 506 kts 324°
2026-04-25 08:06 -10.86781 42.53280 29964 ft 506 kts 324°
2026-04-25 08:06 -10.81186 42.48940 29965 ft 506 kts 324°
2026-04-25 08:07 -10.75587 42.44599 29961 ft 506 kts 324°
2026-04-25 08:07 -10.69786 42.40587 29953 ft 504 kts 330°
2026-04-25 08:08 -10.63838 42.36907 29967 ft 503 kts 330°
2026-04-25 08:08 -10.57847 42.33211 29963 ft 503 kts 330°
2026-04-25 08:09 -10.51877 42.29476 29963 ft 504 kts 330°
2026-04-25 08:09 -10.45920 42.25723 29962 ft 504 kts 330°
2026-04-25 08:10 -10.39961 42.21966 29965 ft 504 kts 330°
2026-04-25 08:10 -10.33989 42.18206 29964 ft 504 kts 329°
2026-04-25 08:11 -10.28026 42.14455 29965 ft 504 kts 329°
2026-04-25 08:11 -10.22061 42.10705 29964 ft 504 kts 329°
2026-04-25 08:12 -10.16139 42.06984 29962 ft 504 kts 329°
2026-04-25 08:12 -10.10169 42.03234 29965 ft 504 kts 329°
2026-04-25 08:13 -10.04204 41.99489 29964 ft 504 kts 329°
2026-04-25 08:14 -9.95249 41.93868 29966 ft 504 kts 329°
2026-04-25 08:14 -9.89273 41.90121 29964 ft 505 kts 329°
2026-04-25 08:15 -9.83333 41.86397 29970 ft 505 kts 329°
2026-04-25 08:15 -9.77359 41.82658 29962 ft 504 kts 329°
2026-04-25 08:16 -9.71388 41.78909 29965 ft 504 kts 329°
2026-04-25 08:16 -9.65410 41.75166 29966 ft 504 kts 329°
2026-04-25 08:17 -9.59477 41.71456 29963 ft 503 kts 329°
2026-04-25 08:17 -9.53518 41.67731 29964 ft 502 kts 329°
2026-04-25 08:18 -9.47581 41.64013 29962 ft 501 kts 329°
2026-04-25 08:18 -9.41654 41.60309 29966 ft 500 kts 329°
2026-04-25 08:19 -9.35731 41.56610 29961 ft 499 kts 329°
2026-04-25 08:19 -9.29817 41.52919 29965 ft 499 kts 329°
2026-04-25 08:20 -9.23905 41.49225 29958 ft 499 kts 329°
2026-04-25 08:20 -9.18031 41.45558 29966 ft 499 kts 329°
2026-04-25 08:21 -9.12116 41.41869 29958 ft 500 kts 329°
2026-04-25 08:21 -9.06196 41.38178 29973 ft 500 kts 329°
2026-04-25 08:22 -9.00271 41.34485 29956 ft 500 kts 329°
2026-04-25 08:22 -8.94345 41.30792 29961 ft 500 kts 329°
2026-04-25 08:23 -8.88421 41.27101 29956 ft 500 kts 329°
2026-04-25 08:23 -8.82493 41.23411 29966 ft 500 kts 329°
2026-04-25 08:24 -8.76565 41.19722 29960 ft 500 kts 329°
2026-04-25 08:24 -8.70661 41.16050 29965 ft 500 kts 329°
2026-04-25 08:25 -8.64724 41.12357 29960 ft 500 kts 329°
2026-04-25 08:25 -8.58788 41.08673 29964 ft 500 kts 329°
2026-04-25 08:26 -8.52891 41.04998 29962 ft 501 kts 329°
2026-04-25 08:26 -8.46952 41.01309 29957 ft 501 kts 329°
2026-04-25 08:27 -8.41007 40.97620 29964 ft 501 kts 329°
2026-04-25 08:27 -8.35069 40.93934 29958 ft 501 kts 329°
2026-04-25 08:28 -8.29129 40.90247 29966 ft 500 kts 329°
2026-04-25 08:28 -8.23197 40.86567 29956 ft 500 kts 329°
2026-04-25 08:29 -8.17303 40.82898 29965 ft 500 kts 328°
2026-04-25 08:29 -8.11454 40.79092 29958 ft 500 kts 327°
2026-04-25 08:30 -8.05629 40.75256 29965 ft 500 kts 328°
2026-04-25 08:30 -7.99780 40.71430 29962 ft 500 kts 328°
2026-04-25 08:31 -7.93935 40.67621 29962 ft 500 kts 328°
2026-04-25 08:31 -7.88125 40.63836 29964 ft 500 kts 328°
2026-04-25 08:32 -7.82242 40.60004 29959 ft 500 kts 328°
2026-04-25 08:32 -7.76384 40.56304 29968 ft 500 kts 329°
2026-04-25 08:33 -7.70462 40.52631 29957 ft 500 kts 329°
2026-04-25 08:33 -7.64537 40.48947 29965 ft 500 kts 329°
2026-04-25 08:34 -7.59582 40.45853 29961 ft 500 kts 329°
2026-04-25 08:34 -7.53702 40.42179 29967 ft 500 kts 329°
2026-04-25 08:35 -7.47783 40.38481 29965 ft 501 kts 328°
2026-04-25 08:35 -7.41851 40.34774 29963 ft 501 kts 328°
2026-04-25 08:36 -7.35924 40.31075 29966 ft 501 kts 328°
2026-04-25 08:36 -7.29982 40.27369 29961 ft 501 kts 328°
2026-04-25 08:37 -7.24049 40.23669 29967 ft 501 kts 329°
2026-04-25 08:37 -7.18119 40.19968 29965 ft 501 kts 328°
2026-04-25 08:38 -7.12225 40.16292 29970 ft 501 kts 328°
2026-04-25 08:38 -7.06298 40.12600 29964 ft 501 kts 328°
2026-04-25 08:39 -7.00354 40.08898 29972 ft 501 kts 328°
2026-04-25 08:39 -6.94469 40.05235 29977 ft 500 kts 328°
2026-04-25 08:40 -6.88556 40.01548 29962 ft 498 kts 328°
2026-04-25 08:40 -6.82665 39.97878 29966 ft 497 kts 328°
2026-04-25 08:41 -6.76783 39.94221 29956 ft 496 kts 328°
2026-04-25 08:41 -6.70905 39.90558 29971 ft 496 kts 328°
2026-04-25 08:42 -6.65042 39.86906 29961 ft 496 kts 328°
2026-04-25 08:42 -6.59219 39.83268 29964 ft 496 kts 328°
2026-04-25 08:43 -6.53352 39.79613 29957 ft 496 kts 328°
2026-04-25 08:43 -6.47472 39.75953 29962 ft 496 kts 328°
2026-04-25 08:44 -6.41614 39.72286 29956 ft 496 kts 327°
2026-04-25 08:44 -6.35782 39.68563 29955 ft 496 kts 327°
2026-04-25 08:45 -6.29958 39.64846 29954 ft 496 kts 327°
2026-04-25 08:45 -6.24151 39.61171 29951 ft 496 kts 328°
2026-04-25 08:46 -6.18219 39.57628 29959 ft 496 kts 329°
2026-04-25 08:46 -6.12257 39.54120 29951 ft 496 kts 329°
2026-04-25 08:47 -6.06306 39.50588 29973 ft 496 kts 329°
2026-04-25 08:47 -6.00397 39.47066 29968 ft 496 kts 329°
2026-04-25 08:48 -5.94449 39.43521 29965 ft 497 kts 329°
2026-04-25 08:48 -5.88501 39.39979 29971 ft 496 kts 329°
2026-04-25 08:49 -5.82549 39.36450 29967 ft 497 kts 329°
2026-04-25 08:49 -5.76586 39.32930 29995 ft 497 kts 329°
2026-04-25 08:50 -5.70607 39.29401 29971 ft 498 kts 329°
2026-04-25 08:50 -5.64679 39.25901 29973 ft 497 kts 329°
2026-04-25 08:51 -5.58721 39.22381 29965 ft 497 kts 329°
2026-04-25 08:51 -5.52752 39.18853 29979 ft 497 kts 329°
2026-04-25 08:52 -5.46789 39.15336 29969 ft 497 kts 329°
2026-04-25 08:52 -5.40828 39.11818 29982 ft 497 kts 329°
2026-04-25 08:53 -5.34862 39.08297 29975 ft 498 kts 329°
2026-04-25 08:53 -5.28922 39.04792 29978 ft 499 kts 329°
2026-04-25 08:54 -5.22929 39.01256 29990 ft 500 kts 329°
2026-04-25 08:54 -5.16930 38.97719 29990 ft 501 kts 329°
2026-04-25 08:55 -5.10903 38.94166 29994 ft 502 kts 329°
2026-04-25 08:55 -5.04871 38.90610 29990 ft 503 kts 329°
2026-04-25 08:56 -4.98832 38.87051 29995 ft 503 kts 329°
2026-04-25 08:56 -4.92831 38.83512 30010 ft 504 kts 329°
2026-04-25 08:57 -4.86784 38.79950 30008 ft 504 kts 329°
2026-04-25 08:57 -4.80760 38.76305 30010 ft 504 kts 328°
2026-04-25 08:58 -4.74768 38.72599 30015 ft 505 kts 328°
2026-04-25 08:58 -4.68817 38.68927 30019 ft 505 kts 328°
2026-04-25 08:59 -4.62830 38.65248 30030 ft 504 kts 328°
2026-04-25 08:59 -4.56840 38.61574 30025 ft 504 kts 328°
2026-04-25 09:00 -4.50860 38.57906 30021 ft 504 kts 328°
2026-04-25 09:00 -4.44879 38.54238 30025 ft 504 kts 328°
2026-04-25 09:01 -4.38890 38.50565 30015 ft 504 kts 328°
2026-04-25 09:01 -4.32915 38.46901 30017 ft 504 kts 328°
2026-04-25 09:02 -4.26968 38.43255 30016 ft 504 kts 328°
2026-04-25 09:02 -4.20974 38.39581 30017 ft 504 kts 328°
2026-04-25 09:03 -4.14982 38.35908 30017 ft 505 kts 328°
2026-04-25 09:03 -4.08982 38.32231 30019 ft 505 kts 328°
2026-04-25 09:04 -4.03021 38.28579 30020 ft 505 kts 328°
2026-04-25 09:04 -3.97034 38.24895 30023 ft 505 kts 328°
2026-04-25 09:05 -3.91043 38.21201 30028 ft 505 kts 328°
2026-04-25 09:05 -3.85052 38.17510 30032 ft 505 kts 328°
2026-04-25 09:06 -3.79059 38.13820 30043 ft 505 kts 328°
2026-04-25 09:06 -3.73064 38.10128 30035 ft 506 kts 328°
2026-04-25 09:07 -3.67106 38.06460 30048 ft 505 kts 328°
2026-04-25 09:07 -3.61102 38.02765 30046 ft 505 kts 328°
2026-04-25 09:08 -3.55087 37.99101 30048 ft 506 kts 329°
2026-04-25 09:08 -3.49057 37.95460 30046 ft 506 kts 329°
2026-04-25 09:09 -3.43057 37.91833 30051 ft 507 kts 329°
2026-04-25 09:09 -3.37019 37.88176 30060 ft 507 kts 329°
2026-04-25 09:10 -3.30975 37.84514 30063 ft 507 kts 329°
2026-04-25 09:10 -3.24931 37.80854 30084 ft 507 kts 329°
2026-04-25 09:11 -3.15904 37.75387 30084 ft 507 kts 329°
2026-04-25 09:11 -3.09870 37.71734 30085 ft 507 kts 329°
2026-04-25 09:12 -3.03840 37.68083 30105 ft 506 kts 329°
2026-04-25 09:12 -2.97816 37.64437 30108 ft 506 kts 329°
2026-04-25 09:13 -2.91789 37.60788 30134 ft 506 kts 329°
2026-04-25 09:13 -2.85737 37.57176 30121 ft 506 kts 332°
2026-04-25 09:14 -2.79302 37.54356 30135 ft 505 kts 339°
2026-04-25 09:14 -2.72769 37.51840 30123 ft 506 kts 339°
2026-04-25 09:15 -2.66206 37.49281 30102 ft 507 kts 339°
2026-04-25 09:15 -2.59644 37.46691 30104 ft 507 kts 338°
2026-04-25 09:16 -2.53071 37.44085 30088 ft 507 kts 338°
2026-04-25 09:16 -2.46498 37.41480 30095 ft 508 kts 338°
2026-04-25 09:17 -2.36673 37.37591 30097 ft 508 kts 338°
2026-04-25 09:18 -2.30097 37.34988 30103 ft 508 kts 338°
2026-04-25 09:18 -2.23529 37.32389 30112 ft 507 kts 338°
2026-04-25 09:19 -2.16964 37.29792 30127 ft 507 kts 338°
2026-04-25 09:19 -2.10389 37.27190 30123 ft 507 kts 339°
2026-04-25 09:20 -2.03866 37.24610 30137 ft 507 kts 339°
2026-04-25 09:20 -1.97299 37.22013 30144 ft 507 kts 339°
2026-04-25 09:21 -1.90737 37.19417 30158 ft 507 kts 339°
2026-04-25 09:21 -1.85273 37.17256 30149 ft 507 kts 339°
2026-04-25 09:22 -1.77646 37.14240 30164 ft 507 kts 339°
2026-04-25 09:22 -1.71075 37.11641 30168 ft 507 kts 339°
2026-04-25 09:23 -1.65620 37.09485 30170 ft 507 kts 339°
2026-04-25 09:23 -1.59054 37.06888 30174 ft 507 kts 339°
2026-04-25 09:24 -1.52487 37.04291 30183 ft 507 kts 339°
2026-04-25 09:24 -1.45923 37.01696 30188 ft 507 kts 339°
2026-04-25 09:25 -1.39361 36.99101 30210 ft 507 kts 339°
2026-04-25 09:25 -1.32866 36.96470 30209 ft 507 kts 335°
2026-04-25 09:26 -1.26767 36.92898 30215 ft 508 kts 324°
2026-04-25 09:26 -1.21252 36.88473 30203 ft 508 kts 321°
2026-04-25 09:27 -1.15774 36.84001 30241 ft 508 kts 321°
2026-04-25 09:27 -1.10276 36.79557 30233 ft 509 kts 322°
2026-04-25 09:28 -1.04755 36.75124 30220 ft 509 kts 322°
2026-04-25 09:28 -0.99267 36.70720 30191 ft 509 kts 322°
2026-04-25 09:29 -0.93741 36.66284 30188 ft 509 kts 322°
2026-04-25 09:29 -0.88233 36.61861 30179 ft 509 kts 322°
2026-04-25 09:30 -0.82721 36.57434 30179 ft 508 kts 322°
2026-04-25 09:30 -0.77210 36.53009 30179 ft 508 kts 322°
2026-04-25 09:31 -0.71730 36.48608 30176 ft 508 kts 322°
2026-04-25 09:31 -0.66218 36.44182 30158 ft 507 kts 322°
2026-04-25 09:32 -0.60713 36.39761 30155 ft 507 kts 322°
2026-04-25 09:32 -0.55216 36.35348 30154 ft 507 kts 322°
2026-04-25 09:33 -0.49716 36.30932 30143 ft 507 kts 322°
2026-04-25 09:33 -0.44221 36.26520 30135 ft 507 kts 322°
2026-04-25 09:34 -0.38723 36.22103 30126 ft 506 kts 322°
2026-04-25 09:34 -0.33227 36.17710 30111 ft 506 kts 323°
2026-04-25 09:35 -0.27302 36.14019 30108 ft 504 kts 335°
2026-04-25 09:35 -0.20888 36.11228 30093 ft 503 kts 338°
2026-04-25 09:36 -0.14450 36.08479 30091 ft 503 kts 337°
2026-04-25 09:36 -0.08013 36.05691 30091 ft 503 kts 337°
2026-04-25 09:37 -0.01585 36.02885 30086 ft 504 kts 337°
2026-04-25 09:37 0.04837 36.00078 30066 ft 504 kts 337°
2026-04-25 09:38 0.11280 35.97264 30065 ft 504 kts 337°
2026-04-25 09:38 0.17669 35.94474 30038 ft 504 kts 337°
2026-04-25 09:39 0.24106 35.91664 30039 ft 505 kts 337°
2026-04-25 09:39 0.30554 35.88849 30013 ft 505 kts 337°
2026-04-25 09:40 0.40215 35.84631 29990 ft 504 kts 337°
2026-04-25 09:40 0.46616 35.81836 29993 ft 504 kts 337°
2026-04-25 09:41 0.53054 35.79025 29967 ft 504 kts 337°
2026-04-25 09:41 0.59489 35.76215 29971 ft 503 kts 337°
2026-04-25 09:42 0.65864 35.73432 29972 ft 503 kts 337°
2026-04-25 09:42 0.72287 35.70627 29963 ft 503 kts 337°
2026-04-25 09:43 0.78713 35.67821 29964 ft 503 kts 337°
2026-04-25 09:43 0.85132 35.65018 29988 ft 504 kts 337°
2026-04-25 09:44 0.91555 35.62213 29986 ft 504 kts 337°
2026-04-25 09:44 0.97939 35.59425 29993 ft 504 kts 336°
2026-04-25 09:45 1.04370 35.56615 29992 ft 505 kts 336°
2026-04-25 09:45 1.10810 35.53801 30011 ft 505 kts 337°
2026-04-25 09:46 1.17261 35.51020 30002 ft 505 kts 337°
2026-04-25 09:46 1.23743 35.48312 30008 ft 504 kts 338°
2026-04-25 09:47 1.30226 35.45612 29988 ft 504 kts 337°
2026-04-25 09:47 1.36657 35.42920 29999 ft 504 kts 337°
2026-04-25 09:48 1.43133 35.40202 29975 ft 503 kts 337°
2026-04-25 09:48 1.49593 35.37489 29955 ft 503 kts 337°
2026-04-25 09:49 1.56055 35.34776 29956 ft 503 kts 338°
2026-04-25 09:49 1.62462 35.32086 29939 ft 502 kts 338°
2026-04-25 09:50 1.68894 35.29386 29925 ft 500 kts 338°
2026-04-25 09:50 1.75309 35.26693 29920 ft 499 kts 338°
2026-04-25 09:51 1.81708 35.24007 29934 ft 499 kts 338°
2026-04-25 09:51 1.88102 35.21316 29927 ft 498 kts 338°
2026-04-25 09:52 1.94485 35.18636 29928 ft 496 kts 338°
2026-04-25 09:52 2.00849 35.15969 29920 ft 495 kts 338°
2026-04-25 09:53 2.07149 35.13323 29929 ft 494 kts 338°
2026-04-25 09:53 2.13484 35.10661 29923 ft 493 kts 338°
2026-04-25 09:54 2.19821 35.07999 29932 ft 493 kts 338°
2026-04-25 09:54 2.26155 35.05337 29922 ft 494 kts 338°
2026-04-25 09:55 2.32509 35.02667 29934 ft 495 kts 338°
2026-04-25 09:55 2.38849 35.00002 29928 ft 497 kts 338°
2026-04-25 09:56 2.45230 34.97299 29926 ft 497 kts 336°
2026-04-25 09:56 2.51403 34.94261 29904 ft 497 kts 334°
2026-04-25 09:57 2.57585 34.91130 29916 ft 497 kts 334°
2026-04-25 09:57 2.63756 34.88017 29911 ft 496 kts 334°
2026-04-25 09:58 2.69933 34.84920 29915 ft 496 kts 334°
2026-04-25 09:58 2.76108 34.81829 29917 ft 496 kts 334°
2026-04-25 09:59 2.82239 34.78760 29918 ft 496 kts 334°
2026-04-25 09:59 2.88411 34.75669 29913 ft 496 kts 334°
2026-04-25 10:00 2.94581 34.72578 29918 ft 496 kts 334°
2026-04-25 10:00 3.00767 34.69479 29920 ft 497 kts 334°
2026-04-25 10:01 3.06956 34.66378 29915 ft 497 kts 334°
2026-04-25 10:01 3.13141 34.63278 29917 ft 497 kts 334°
2026-04-25 10:02 3.19326 34.60179 29913 ft 497 kts 334°
2026-04-25 10:02 3.25478 34.57095 29918 ft 497 kts 334°
2026-04-25 10:03 3.31672 34.53990 29909 ft 498 kts 334°
2026-04-25 10:03 3.37867 34.50883 29920 ft 497 kts 334°
2026-04-25 10:04 3.44062 34.47777 29915 ft 497 kts 334°
2026-04-25 10:04 3.50255 34.44667 30225 ft 495 kts 334°
2026-04-25 10:05 3.53307 34.43137 30757 ft 488 kts 334°
2026-04-25 10:05 3.56351 34.41612 30906 ft 491 kts 334°
2026-04-25 10:05 3.62469 34.38544 31336 ft 492 kts 334°
2026-04-25 10:06 3.65518 34.37014 31710 ft 488 kts 334°
2026-04-25 10:06 3.68554 34.35490 31941 ft 488 kts 334°
2026-04-25 10:06 3.74669 34.32421 31929 ft 492 kts 334°
2026-04-25 10:07 3.80743 34.29369 31924 ft 489 kts 334°
2026-04-25 10:07 3.86843 34.26312 31920 ft 488 kts 334°
2026-04-25 10:08 3.92920 34.23257 31915 ft 488 kts 334°
2026-04-25 10:08 3.98997 34.20205 31916 ft 489 kts 334°
2026-04-25 10:09 4.05040 34.17049 31909 ft 491 kts 332°
2026-04-25 10:09 4.11002 34.13768 31906 ft 493 kts 331°
2026-04-25 10:10 4.17026 34.10446 31908 ft 494 kts 332°
2026-04-25 10:10 4.23074 34.07137 31898 ft 495 kts 332°
2026-04-25 10:11 4.29087 34.03860 31893 ft 495 kts 332°
2026-04-25 10:11 4.35138 34.00565 31896 ft 494 kts 332°
2026-04-25 10:12 4.41176 33.97275 31890 ft 493 kts 332°
2026-04-25 10:13 4.49208 33.92897 31879 ft 493 kts 332°
2026-04-25 10:13 4.55241 33.89607 31884 ft 494 kts 332°
2026-04-25 10:14 4.61266 33.86321 31868 ft 494 kts 332°
2026-04-25 10:14 4.67317 33.83021 31866 ft 495 kts 332°
2026-04-25 10:15 4.73375 33.79715 31852 ft 496 kts 332°
2026-04-25 10:15 4.79436 33.76408 31852 ft 496 kts 332°
2026-04-25 10:16 4.85508 33.73093 31836 ft 496 kts 332°
2026-04-25 10:16 4.91566 33.69786 31840 ft 496 kts 332°
2026-04-25 10:17 4.97619 33.66481 31830 ft 495 kts 332°
2026-04-25 10:17 5.03621 33.63203 31831 ft 494 kts 332°
2026-04-25 10:18 5.09652 33.59909 31824 ft 493 kts 332°
2026-04-25 10:18 5.15678 33.56616 31821 ft 492 kts 332°
2026-04-25 10:19 5.21694 33.53328 31829 ft 492 kts 332°
2026-04-25 10:19 5.27713 33.50038 31824 ft 492 kts 332°
2026-04-25 10:20 5.33735 33.46746 31829 ft 493 kts 332°
2026-04-25 10:20 5.39723 33.43471 31824 ft 493 kts 332°
2026-04-25 10:21 5.45753 33.40173 31823 ft 494 kts 332°
2026-04-25 10:21 5.51798 33.36865 31829 ft 494 kts 332°
2026-04-25 10:22 5.57842 33.33558 31819 ft 495 kts 332°
2026-04-25 10:22 5.63887 33.30249 31825 ft 495 kts 332°
2026-04-25 10:23 5.69904 33.26954 31820 ft 495 kts 332°
2026-04-25 10:23 5.75960 33.23638 31820 ft 495 kts 332°
2026-04-25 10:24 5.82002 33.20328 31825 ft 494 kts 332°
2026-04-25 10:24 5.88045 33.17017 31817 ft 494 kts 332°
2026-04-25 10:25 5.94080 33.13710 31823 ft 494 kts 332°
2026-04-25 10:25 6.00087 33.10417 31826 ft 494 kts 332°
2026-04-25 10:26 6.06128 33.07104 31831 ft 494 kts 332°
2026-04-25 10:26 6.12166 33.03793 31830 ft 494 kts 332°
2026-04-25 10:27 6.18208 33.00478 31831 ft 494 kts 332°
2026-04-25 10:27 6.24251 32.97162 31835 ft 494 kts 332°
2026-04-25 10:28 6.30290 32.93847 31833 ft 494 kts 332°
2026-04-25 10:28 6.36333 32.90529 31838 ft 494 kts 332°
2026-04-25 10:29 6.42340 32.87230 31839 ft 495 kts 332°
2026-04-25 10:29 6.48397 32.83902 31838 ft 496 kts 332°
2026-04-25 10:30 6.54463 32.80569 31849 ft 497 kts 332°
2026-04-25 10:30 6.60532 32.77233 31854 ft 497 kts 332°
2026-04-25 10:31 6.66622 32.73885 31851 ft 498 kts 332°
2026-04-25 10:31 6.72673 32.70557 31862 ft 499 kts 332°
2026-04-25 10:32 6.78773 32.67201 31850 ft 499 kts 332°
2026-04-25 10:32 6.84874 32.63844 31855 ft 499 kts 332°
2026-04-25 10:33 6.90959 32.60495 31855 ft 498 kts 332°
2026-04-25 10:33 6.97047 32.57142 31865 ft 497 kts 332°
2026-04-25 10:34 7.03119 32.53798 31863 ft 497 kts 332°
2026-04-25 10:34 7.09140 32.50481 31863 ft 497 kts 332°
2026-04-25 10:35 7.15200 32.47141 31869 ft 496 kts 332°
2026-04-25 10:35 7.21257 32.43802 31857 ft 496 kts 332°
2026-04-25 10:36 7.27316 32.40461 31863 ft 496 kts 332°
2026-04-25 10:36 7.33378 32.37117 31850 ft 496 kts 332°
2026-04-25 10:37 7.39434 32.33775 31852 ft 496 kts 331°
2026-04-25 10:37 7.45502 32.30427 31851 ft 497 kts 331°
2026-04-25 10:38 7.51567 32.27078 31845 ft 497 kts 331°
2026-04-25 10:38 7.57640 32.23724 31849 ft 498 kts 331°
2026-04-25 10:39 7.63714 32.20368 31843 ft 498 kts 331°
2026-04-25 10:39 7.69750 32.17031 31838 ft 498 kts 331°
2026-04-25 10:40 7.75836 32.13667 31841 ft 499 kts 331°
2026-04-25 10:40 7.81937 32.10293 31842 ft 499 kts 331°
2026-04-25 10:41 7.88029 32.06922 31837 ft 499 kts 331°
2026-04-25 10:41 7.94128 32.03547 31840 ft 500 kts 331°
2026-04-25 10:42 8.00232 32.00168 31837 ft 500 kts 331°
2026-04-25 10:42 8.06297 31.96809 31836 ft 501 kts 331°
2026-04-25 10:43 8.12404 31.93426 31833 ft 501 kts 331°
2026-04-25 10:43 8.18523 31.90035 31829 ft 501 kts 331°
2026-04-25 10:44 8.24634 31.86647 31830 ft 501 kts 331°
2026-04-25 10:44 8.30755 31.83252 31824 ft 501 kts 331°
2026-04-25 10:45 8.36866 31.79862 31822 ft 501 kts 331°
2026-04-25 10:45 8.42940 31.76491 31822 ft 501 kts 331°
2026-04-25 10:46 8.49057 31.73094 31821 ft 501 kts 331°
2026-04-25 10:46 8.55177 31.69695 31824 ft 502 kts 331°
2026-04-25 10:47 8.61298 31.66293 31824 ft 502 kts 331°
2026-04-25 10:47 8.67430 31.62885 31817 ft 502 kts 330°
2026-04-25 10:48 8.73553 31.59480 31817 ft 502 kts 330°
2026-04-25 10:48 8.79681 31.56070 31812 ft 502 kts 330°
2026-04-25 10:49 8.85803 31.52661 31813 ft 502 kts 330°
2026-04-25 10:49 8.91888 31.49270 31812 ft 502 kts 331°
2026-04-25 10:50 8.98022 31.45852 31811 ft 502 kts 330°
2026-04-25 10:50 9.04147 31.42437 31812 ft 502 kts 330°
2026-04-25 10:51 9.10283 31.39015 31810 ft 502 kts 331°
2026-04-25 10:51 9.16373 31.35617 31807 ft 503 kts 331°
2026-04-25 10:52 9.22507 31.32193 31803 ft 503 kts 331°
2026-04-25 10:52 9.28645 31.28765 31803 ft 503 kts 330°
2026-04-25 10:53 9.34733 31.25364 31802 ft 503 kts 330°
2026-04-25 10:53 9.40860 31.21940 31801 ft 503 kts 331°
2026-04-25 10:54 9.46997 31.18509 31795 ft 503 kts 331°
2026-04-25 10:54 9.53121 31.15084 31798 ft 503 kts 331°
2026-04-25 10:55 9.59243 31.11658 31793 ft 503 kts 331°
2026-04-25 10:55 9.65374 31.08226 31796 ft 503 kts 331°
2026-04-25 10:56 9.71500 31.04795 31801 ft 503 kts 331°
2026-04-25 10:56 9.77629 31.01361 31789 ft 503 kts 330°
2026-04-25 10:57 9.83728 30.97942 31793 ft 503 kts 330°
2026-04-25 10:57 9.89848 30.94509 31790 ft 503 kts 331°
2026-04-25 10:58 9.95979 30.91070 31783 ft 503 kts 330°
2026-04-25 10:58 10.02069 30.87653 31786 ft 503 kts 331°
2026-04-25 10:59 10.08189 30.84216 31788 ft 503 kts 330°
2026-04-25 10:59 10.14306 30.80779 31789 ft 503 kts 330°
2026-04-25 11:00 10.20432 30.77334 31789 ft 502 kts 330°
2026-04-25 11:00 10.25516 30.74474 31790 ft 502 kts 330°
2026-04-25 11:01 10.32625 30.70473 31792 ft 502 kts 330°
2026-04-25 11:01 10.38739 30.67031 31786 ft 503 kts 330°
2026-04-25 11:02 10.43867 30.64145 31788 ft 502 kts 330°
2026-04-25 11:02 10.49945 30.60726 31792 ft 502 kts 330°
2026-04-25 11:03 10.56067 30.57280 31793 ft 502 kts 330°
2026-04-25 11:03 10.62183 30.53835 31796 ft 502 kts 330°
2026-04-25 11:04 10.68301 30.50387 31797 ft 502 kts 330°
2026-04-25 11:04 10.74416 30.46939 31798 ft 502 kts 330°
2026-04-25 11:05 10.80527 30.43491 31800 ft 502 kts 331°
2026-04-25 11:05 10.86632 30.40045 31800 ft 501 kts 330°
2026-04-25 11:06 10.92687 30.36626 31798 ft 501 kts 330°
2026-04-25 11:06 10.98786 30.33180 31808 ft 501 kts 330°
2026-04-25 11:07 11.04881 30.29736 31804 ft 501 kts 330°
2026-04-25 11:07 11.10976 30.26289 31805 ft 501 kts 330°
2026-04-25 11:08 11.17078 30.22837 31809 ft 502 kts 330°
2026-04-25 11:08 11.23191 30.19376 31807 ft 502 kts 330°
2026-04-25 11:09 11.29306 30.15914 31802 ft 502 kts 330°
2026-04-25 11:09 11.35379 30.12473 31804 ft 502 kts 330°
2026-04-25 11:10 11.41496 30.09005 31808 ft 503 kts 330°
2026-04-25 11:10 11.47620 30.05533 31804 ft 502 kts 330°
2026-04-25 11:11 11.53671 30.02099 31808 ft 500 kts 330°
2026-04-25 11:11 11.59744 29.98651 31806 ft 499 kts 330°
2026-04-25 11:12 11.65809 29.95206 31814 ft 498 kts 330°
2026-04-25 11:12 11.71862 29.91767 31813 ft 497 kts 330°
2026-04-25 11:13 11.77911 29.88327 31824 ft 497 kts 330°
2026-04-25 11:13 11.83919 29.84909 31820 ft 496 kts 330°
2026-04-25 11:14 11.89975 29.81463 31828 ft 496 kts 330°
2026-04-25 11:14 11.95969 29.78049 31824 ft 496 kts 330°
2026-04-25 11:15 12.02000 29.74613 31827 ft 496 kts 330°
2026-04-25 11:15 12.08029 29.71176 31829 ft 496 kts 330°
2026-04-25 11:16 12.17089 29.66009 31833 ft 496 kts 329°
2026-04-25 11:16 12.23087 29.62585 31830 ft 496 kts 329°
2026-04-25 11:17 12.29115 29.59142 31829 ft 496 kts 330°
2026-04-25 11:17 12.35158 29.55690 31834 ft 496 kts 329°
2026-04-25 11:18 12.41183 29.52245 31831 ft 496 kts 329°
2026-04-25 11:18 12.47207 29.48800 31838 ft 495 kts 329°
2026-04-25 11:19 12.53217 29.45360 31825 ft 494 kts 329°
2026-04-25 11:19 12.59169 29.41952 31823 ft 492 kts 329°
2026-04-25 11:20 12.65151 29.38524 31827 ft 491 kts 329°
2026-04-25 11:20 12.71113 29.35106 31832 ft 491 kts 329°
2026-04-25 11:21 12.77067 29.31691 31830 ft 491 kts 329°
2026-04-25 11:21 12.83023 29.28272 31832 ft 491 kts 329°
2026-04-25 11:22 12.87987 29.25422 31832 ft 491 kts 329°
2026-04-25 11:22 12.94926 29.21437 31833 ft 492 kts 329°
2026-04-25 11:23 13.00903 29.18006 31835 ft 493 kts 329°
2026-04-25 11:23 13.06884 29.14570 31833 ft 493 kts 329°
2026-04-25 11:24 13.12871 29.11127 31838 ft 493 kts 329°
2026-04-25 11:24 13.18860 29.07681 31837 ft 493 kts 329°
2026-04-25 11:25 13.24844 29.04236 31834 ft 493 kts 329°
2026-04-25 11:25 13.30832 29.00787 31839 ft 493 kts 329°
2026-04-25 11:26 13.36816 28.97338 31835 ft 493 kts 329°
2026-04-25 11:26 13.42766 28.93906 31837 ft 492 kts 329°
2026-04-25 11:27 13.48743 28.90458 31841 ft 492 kts 329°
2026-04-25 11:27 13.53708 28.87591 31833 ft 492 kts 329°
2026-04-25 11:28 13.60681 28.83563 31833 ft 491 kts 329°
2026-04-25 11:28 13.66643 28.80117 31831 ft 491 kts 329°
2026-04-25 11:29 13.72598 28.76673 31834 ft 491 kts 329°
2026-04-25 11:29 13.78550 28.73228 31833 ft 491 kts 329°
2026-04-25 11:30 13.84465 28.69803 31837 ft 491 kts 328°
2026-04-25 11:30 13.90420 28.66353 31839 ft 491 kts 328°
2026-04-25 11:31 13.96376 28.62900 31833 ft 491 kts 328°
2026-04-25 11:31 14.02329 28.59446 31831 ft 491 kts 328°
2026-04-25 11:32 14.08250 28.56010 31834 ft 491 kts 328°
2026-04-25 11:32 14.14199 28.52555 31844 ft 491 kts 328°
2026-04-25 11:33 14.20149 28.49097 31832 ft 491 kts 328°
2026-04-25 11:33 14.26116 28.45627 31840 ft 491 kts 328°
2026-04-25 11:34 14.32071 28.42162 31835 ft 491 kts 328°
2026-04-25 11:34 14.38018 28.38699 31841 ft 491 kts 328°
2026-04-25 11:35 14.43967 28.35234 31836 ft 491 kts 328°
2026-04-25 11:35 14.49913 28.31767 31843 ft 491 kts 327°
2026-04-25 11:36 14.55826 28.28318 31843 ft 491 kts 327°
2026-04-25 11:36 14.61767 28.24850 31843 ft 490 kts 327°
2026-04-25 11:37 14.67709 28.21378 31844 ft 490 kts 327°
2026-04-25 11:37 14.73649 28.17907 31850 ft 490 kts 327°
2026-04-25 11:38 14.79594 28.14430 31852 ft 490 kts 327°
2026-04-25 11:38 14.85528 28.10954 31859 ft 490 kts 327°
2026-04-25 11:39 14.91428 28.07496 31856 ft 490 kts 327°
2026-04-25 11:39 14.97361 28.04015 31856 ft 490 kts 327°
2026-04-25 11:40 15.03298 28.00530 31859 ft 490 kts 327°
2026-04-25 11:40 15.09230 27.97046 31858 ft 490 kts 327°
2026-04-25 11:41 15.15152 27.93566 31856 ft 490 kts 327°
2026-04-25 11:41 15.21083 27.90078 31868 ft 490 kts 327°
2026-04-25 11:42 15.26979 27.86608 31865 ft 490 kts 327°
2026-04-25 11:42 15.32913 27.83113 31866 ft 490 kts 327°
2026-04-25 11:43 15.38847 27.79617 31869 ft 490 kts 327°
2026-04-25 11:43 15.44773 27.76123 31869 ft 490 kts 327°
2026-04-25 11:44 15.50698 27.72627 31874 ft 490 kts 327°
2026-04-25 11:44 15.56622 27.69129 31869 ft 490 kts 327°
2026-04-25 11:45 15.62511 27.65649 31872 ft 490 kts 326°
2026-04-25 11:45 15.68476 27.62123 31873 ft 490 kts 326°
2026-04-25 11:46 15.74364 27.58639 31879 ft 490 kts 326°
2026-04-25 11:46 15.80292 27.55129 31876 ft 490 kts 326°
2026-04-25 11:47 15.86201 27.51628 31886 ft 490 kts 326°
2026-04-25 11:47 15.92128 27.48114 31879 ft 490 kts 326°
2026-04-25 11:48 15.98050 27.44600 31877 ft 490 kts 326°
2026-04-25 11:48 16.03980 27.41082 31886 ft 490 kts 326°
2026-04-25 11:49 16.09898 27.37571 31890 ft 490 kts 326°
2026-04-25 11:49 16.15815 27.34056 31895 ft 490 kts 326°
2026-04-25 11:50 16.20733 27.31133 31877 ft 490 kts 326°
2026-04-25 11:50 16.26646 27.27616 31881 ft 490 kts 326°
2026-04-25 11:51 16.32565 27.24093 31880 ft 490 kts 326°
2026-04-25 11:51 16.38475 27.20572 31896 ft 489 kts 326°
2026-04-25 11:52 16.44390 27.17046 31892 ft 490 kts 326°
2026-04-25 11:52 16.50305 27.13518 31892 ft 490 kts 326°
2026-04-25 11:53 16.56222 27.09986 31886 ft 490 kts 326°
2026-04-25 11:53 16.62134 27.06454 31888 ft 489 kts 326°
2026-04-25 11:54 16.67990 27.02954 31890 ft 488 kts 326°
2026-04-25 11:55 16.76834 26.97662 31893 ft 488 kts 326°
2026-04-25 11:55 16.82723 26.94135 31888 ft 488 kts 326°
2026-04-25 11:56 16.88586 26.90621 31898 ft 488 kts 325°
2026-04-25 11:56 16.94475 26.87089 31892 ft 488 kts 325°
2026-04-25 11:57 17.00369 26.83552 31886 ft 488 kts 325°
2026-04-25 11:57 17.06257 26.80016 31884 ft 487 kts 325°
2026-04-25 11:58 17.12141 26.76479 31883 ft 487 kts 325°
2026-04-25 11:58 17.17977 26.72969 31882 ft 487 kts 325°
2026-04-25 11:59 17.23857 26.69430 31893 ft 487 kts 325°
2026-04-25 11:59 17.29734 26.65890 31881 ft 487 kts 325°
2026-04-25 12:00 17.38503 26.60602 31884 ft 486 kts 325°
2026-04-25 12:01 17.47304 26.55290 31889 ft 486 kts 324°
2026-04-25 12:01 17.53162 26.51750 31885 ft 486 kts 324°
2026-04-25 12:02 17.61948 26.46437 31883 ft 485 kts 324°
2026-04-25 12:02 17.67791 26.42900 31885 ft 485 kts 324°
2026-04-25 12:03 17.73588 26.39388 31885 ft 484 kts 324°
2026-04-25 12:03 17.79421 26.35852 31882 ft 484 kts 324°
2026-04-25 12:04 17.85250 26.32316 31886 ft 484 kts 324°
2026-04-25 12:04 17.91090 26.28769 31901 ft 483 kts 324°
2026-04-25 12:05 17.96874 26.25255 31899 ft 483 kts 324°
2026-04-25 12:05 18.02696 26.21714 31888 ft 483 kts 323°
2026-04-25 12:06 18.08507 26.18178 31884 ft 482 kts 323°
2026-04-25 12:06 18.14317 26.14640 31886 ft 482 kts 323°
2026-04-25 12:07 18.20121 26.11101 31881 ft 482 kts 323°
2026-04-25 12:07 18.25917 26.07566 31895 ft 482 kts 323°
2026-04-25 12:08 18.31711 26.04029 31875 ft 481 kts 323°
2026-04-25 12:08 18.37500 26.00492 31891 ft 480 kts 323°
2026-04-25 12:09 18.43277 25.96959 31892 ft 480 kts 323°
2026-04-25 12:09 18.49065 25.93417 31880 ft 480 kts 323°
2026-04-25 12:10 18.54805 25.89901 31883 ft 480 kts 323°
2026-04-25 12:10 18.60577 25.86363 31891 ft 480 kts 322°
2026-04-25 12:11 18.66344 25.82825 31878 ft 479 kts 322°
2026-04-25 12:11 18.72106 25.79282 31879 ft 478 kts 322°
2026-04-25 12:12 18.76883 25.76340 31878 ft 478 kts 322°
2026-04-25 12:12 18.83593 25.72205 31880 ft 478 kts 322°
2026-04-25 12:13 18.89350 25.68654 31879 ft 478 kts 322°
2026-04-25 12:13 18.95050 25.65136 31888 ft 478 kts 322°
2026-04-25 12:14 19.00781 25.61596 31882 ft 477 kts 322°
2026-04-25 12:14 19.06500 25.58061 31878 ft 475 kts 322°
2026-04-25 12:15 19.12207 25.54529 31878 ft 474 kts 322°
2026-04-25 12:15 19.17898 25.51003 31879 ft 474 kts 322°
2026-04-25 12:16 19.23588 25.47476 31880 ft 474 kts 322°
2026-04-25 12:16 19.29285 25.43944 31888 ft 474 kts 321°
2026-04-25 12:17 19.34947 25.40442 31876 ft 474 kts 321°
2026-04-25 12:17 19.40645 25.36919 31877 ft 474 kts 321°
2026-04-25 12:18 19.46346 25.33388 31877 ft 474 kts 321°
2026-04-25 12:18 19.52038 25.29859 31875 ft 474 kts 321°
2026-04-25 12:19 19.60551 25.24575 31878 ft 474 kts 321°
2026-04-25 12:20 19.66252 25.21033 31879 ft 474 kts 321°
2026-04-25 12:20 19.71948 25.17490 31880 ft 475 kts 321°
2026-04-25 12:21 19.77650 25.13942 31881 ft 475 kts 321°
2026-04-25 12:21 19.83352 25.10390 31879 ft 475 kts 321°
2026-04-25 12:22 19.89059 25.06831 31882 ft 475 kts 321°
2026-04-25 12:22 19.94764 25.03271 31889 ft 475 kts 321°
2026-04-25 12:23 20.00548 24.99828 31880 ft 481 kts 326°
2026-04-25 12:23 20.06846 24.97206 31880 ft 487 kts 331°
2026-04-25 12:24 20.13195 24.94753 31883 ft 487 kts 331°
2026-04-25 12:24 20.19553 24.92267 31886 ft 486 kts 330°
2026-04-25 12:25 20.25905 24.89757 31900 ft 486 kts 330°
2026-04-25 12:25 20.32245 24.87240 31881 ft 486 kts 330°
2026-04-25 12:26 20.38588 24.84720 31883 ft 486 kts 330°
2026-04-25 12:26 20.44925 24.82201 31882 ft 486 kts 330°
2026-04-25 12:27 20.51239 24.79690 31884 ft 486 kts 330°
2026-04-25 12:27 20.57586 24.77163 31911 ft 487 kts 330°
2026-04-25 12:28 20.63935 24.74634 31882 ft 487 kts 330°
2026-04-25 12:28 20.70291 24.72100 31875 ft 487 kts 330°
2026-04-25 12:29 20.76637 24.69568 31873 ft 487 kts 330°
2026-04-25 12:29 20.82980 24.67034 31870 ft 486 kts 330°
2026-04-25 12:30 20.89291 24.64511 31867 ft 486 kts 330°
2026-04-25 12:30 20.95638 24.61971 31871 ft 486 kts 330°
2026-04-25 12:31 21.01968 24.59436 31861 ft 485 kts 330°
2026-04-25 12:31 21.08294 24.56901 31861 ft 484 kts 330°
2026-04-25 12:32 21.14567 24.54383 31863 ft 484 kts 330°
2026-04-25 12:32 21.20872 24.51850 31858 ft 484 kts 330°
2026-04-25 12:33 21.27174 24.49317 31863 ft 483 kts 329°
2026-04-25 12:33 21.33466 24.46786 31859 ft 482 kts 329°
2026-04-25 12:34 21.39745 24.44257 31849 ft 482 kts 329°
2026-04-25 12:34 21.45989 24.41740 31849 ft 481 kts 329°
2026-04-25 12:35 21.52258 24.39210 31852 ft 481 kts 329°
2026-04-25 12:35 21.58526 24.36678 31862 ft 481 kts 329°
2026-04-25 12:36 21.64787 24.34148 31855 ft 480 kts 329°
2026-04-25 12:36 21.71031 24.31622 31847 ft 479 kts 329°
2026-04-25 12:37 21.77270 24.29095 31853 ft 479 kts 329°
2026-04-25 12:37 21.82448 24.26996 31842 ft 478 kts 329°
2026-04-25 12:38 21.89688 24.24058 31848 ft 478 kts 329°
2026-04-25 12:38 21.95918 24.21529 31850 ft 478 kts 329°
2026-04-25 12:39 22.01098 24.19424 31851 ft 477 kts 328°
2026-04-25 12:39 22.07304 24.16899 31854 ft 476 kts 328°
2026-04-25 12:40 22.13480 24.14384 31852 ft 476 kts 328°
2026-04-25 12:40 22.19683 24.11855 31869 ft 477 kts 328°
2026-04-25 12:41 22.25897 24.09319 31853 ft 477 kts 328°
2026-04-25 12:41 22.32111 24.06782 31859 ft 477 kts 328°
2026-04-25 12:42 22.38319 24.04245 31851 ft 477 kts 328°
2026-04-25 12:42 22.44526 24.01706 31844 ft 476 kts 328°
2026-04-25 12:43 22.50717 23.99170 31873 ft 476 kts 328°
2026-04-25 12:43 22.59977 23.95374 31848 ft 475 kts 328°
2026-04-25 12:44 22.66154 23.92839 31849 ft 475 kts 328°
2026-04-25 12:45 22.75424 23.89028 31848 ft 474 kts 328°
2026-04-25 12:45 22.84685 23.85216 31849 ft 474 kts 328°
2026-04-25 12:46 22.90859 23.82671 31853 ft 475 kts 328°
2026-04-25 12:46 22.97008 23.80134 31853 ft 475 kts 328°
2026-04-25 12:47 23.03197 23.77579 31852 ft 475 kts 328°
2026-04-25 12:47 23.09384 23.75022 31854 ft 475 kts 328°
2026-04-25 12:48 23.15571 23.72462 31870 ft 476 kts 328°
2026-04-25 12:48 23.21754 23.69902 31868 ft 475 kts 328°
2026-04-25 12:49 23.27930 23.67343 31859 ft 474 kts 328°
2026-04-25 12:49 23.34045 23.64807 31868 ft 473 kts 328°
2026-04-25 12:50 23.40191 23.62253 31871 ft 472 kts 328°
2026-04-25 12:50 23.46340 23.59695 31904 ft 472 kts 328°
2026-04-25 12:51 23.52486 23.57136 31881 ft 472 kts 328°
2026-04-25 12:51 23.58634 23.54576 31873 ft 472 kts 328°
2026-04-25 12:52 23.64765 23.52019 31883 ft 471 kts 328°
2026-04-25 12:52 23.70860 23.49475 31882 ft 471 kts 328°
2026-04-25 12:53 23.76984 23.46915 31919 ft 471 kts 328°
2026-04-25 12:53 23.83114 23.44350 31887 ft 471 kts 328°
2026-04-25 12:54 23.89236 23.41787 31899 ft 471 kts 328°
2026-04-25 12:54 23.95364 23.39218 31899 ft 471 kts 328°
2026-04-25 12:55 24.00474 23.37074 31892 ft 471 kts 328°
2026-04-25 12:55 24.07595 23.34083 31901 ft 471 kts 328°
2026-04-25 12:56 24.13688 23.31521 31909 ft 471 kts 328°
2026-04-25 12:56 24.19532 23.28503 31901 ft 460 kts 322°
2026-04-25 12:57 24.25181 23.25192 31906 ft 460 kts 321°
2026-04-25 12:57 24.30832 23.21885 31916 ft 460 kts 322°
2026-04-25 12:58 24.36458 23.18612 31917 ft 460 kts 322°
2026-04-25 12:58 24.42123 23.15323 31934 ft 461 kts 322°
2026-04-25 12:59 24.47793 23.12032 31925 ft 461 kts 322°
2026-04-25 12:59 24.53463 23.08735 31948 ft 461 kts 322°
2026-04-25 13:00 24.58166 23.05998 31946 ft 460 kts 322°
2026-04-25 13:00 24.64777 23.02147 31945 ft 460 kts 322°
2026-04-25 13:01 24.70427 22.98852 31948 ft 459 kts 322°
2026-04-25 13:01 24.76073 22.95556 31955 ft 459 kts 322°
2026-04-25 13:02 24.81681 22.92278 31952 ft 459 kts 322°
2026-04-25 13:02 24.87333 22.88971 31951 ft 459 kts 322°
2026-04-25 13:03 24.92981 22.85663 31955 ft 459 kts 322°
2026-04-25 13:03 24.98621 22.82357 31959 ft 459 kts 322°
2026-04-25 13:04 25.04261 22.79046 32009 ft 459 kts 322°
2026-04-25 13:04 25.09902 22.75731 31971 ft 459 kts 322°
2026-04-25 13:05 25.15534 22.72420 31964 ft 458 kts 322°
2026-04-25 13:05 25.21152 22.69113 31972 ft 457 kts 322°
2026-04-25 13:06 25.26729 22.65827 31973 ft 456 kts 322°
2026-04-25 13:06 25.32336 22.62518 31975 ft 456 kts 322°
2026-04-25 13:07 25.37942 22.59206 31997 ft 456 kts 322°
2026-04-25 13:07 25.43547 22.55892 31986 ft 456 kts 322°
2026-04-25 13:08 25.49135 22.52586 31978 ft 455 kts 322°
2026-04-25 13:08 25.54679 22.49301 31978 ft 454 kts 322°
2026-04-25 13:09 25.60249 22.45997 31984 ft 454 kts 322°
2026-04-25 13:09 25.65816 22.42691 31982 ft 454 kts 322°
2026-04-25 13:10 25.71391 22.39377 31981 ft 454 kts 322°
2026-04-25 13:10 25.76953 22.36068 31982 ft 453 kts 322°
2026-04-25 13:11 25.82509 22.32759 31989 ft 453 kts 322°
2026-04-25 13:11 25.88058 22.29449 31988 ft 452 kts 322°
2026-04-25 13:12 25.93562 22.26164 31991 ft 452 kts 322°
2026-04-25 13:12 25.98180 22.23404 31992 ft 452 kts 322°
2026-04-25 13:13 26.04659 22.19528 31992 ft 452 kts 322°
2026-04-25 13:13 26.10197 22.16211 31994 ft 452 kts 322°
2026-04-25 13:14 26.15742 22.12887 31994 ft 453 kts 322°
2026-04-25 13:14 26.21259 22.09575 31994 ft 453 kts 322°
2026-04-25 13:15 26.26799 22.06247 31997 ft 453 kts 322°
2026-04-25 13:15 26.32342 22.02912 32019 ft 453 kts 322°
2026-04-25 13:16 26.37895 21.99569 32004 ft 452 kts 323°
2026-04-25 13:16 26.43442 21.96226 31997 ft 452 kts 323°
2026-04-25 13:17 26.48933 21.92913 32002 ft 451 kts 322°
2026-04-25 13:17 26.54462 21.89572 32002 ft 450 kts 322°
2026-04-25 13:18 26.59972 21.86240 32002 ft 450 kts 322°
2026-04-25 13:18 26.65489 21.82898 32009 ft 451 kts 323°
2026-04-25 13:19 26.70975 21.79573 32013 ft 450 kts 323°
2026-04-25 13:19 26.74658 21.77339 32004 ft 450 kts 323°
2026-04-25 13:20 26.81978 21.72893 32005 ft 449 kts 323°
2026-04-25 13:20 26.87465 21.69556 32005 ft 448 kts 323°
2026-04-25 13:21 26.92910 21.66240 32002 ft 448 kts 323°
2026-04-25 13:21 26.98392 21.62898 32007 ft 448 kts 323°
2026-04-25 13:22 27.03871 21.59555 32002 ft 448 kts 323°
2026-04-25 13:23 27.12096 21.54529 32006 ft 448 kts 323°
2026-04-25 13:23 27.17530 21.51204 32006 ft 448 kts 323°
2026-04-25 13:24 27.22996 21.47855 32007 ft 448 kts 323°
2026-04-25 13:24 27.28467 21.44498 32013 ft 448 kts 323°
2026-04-25 13:25 27.33949 21.41133 32007 ft 448 kts 323°
2026-04-25 13:25 27.39455 21.37746 32296 ft 452 kts 323°
2026-04-25 13:25 27.42177 21.36073 32685 ft 450 kts 323°
2026-04-25 13:26 27.44916 21.34389 33105 ft 447 kts 322°
2026-04-25 13:26 27.47645 21.32710 33536 ft 445 kts 322°
2026-04-25 13:26 27.50353 21.31041 33903 ft 444 kts 321°
2026-04-25 13:27 27.55797 21.27678 34064 ft 446 kts 321°
2026-04-25 13:27 27.60372 21.24953 34018 ft 448 kts 325°
2026-04-25 13:28 27.66036 21.22025 34007 ft 446 kts 326°
2026-04-25 13:28 27.71689 21.19144 34010 ft 444 kts 326°
2026-04-25 13:29 27.77318 21.16249 34014 ft 444 kts 325°
2026-04-25 13:29 27.82907 21.13357 34022 ft 445 kts 326°
2026-04-25 13:30 27.91373 21.08966 34020 ft 448 kts 326°
2026-04-25 13:31 27.99890 21.04545 34017 ft 449 kts 326°
2026-04-25 13:31 28.05570 21.01593 34019 ft 449 kts 326°
2026-04-25 13:32 28.11257 20.98633 34025 ft 450 kts 326°
2026-04-25 13:32 28.16943 20.95670 34058 ft 450 kts 326°
2026-04-25 13:33 28.22632 20.92702 34029 ft 449 kts 326°
2026-04-25 13:33 28.28269 20.89758 34013 ft 448 kts 326°
2026-04-25 13:34 28.33883 20.86725 34021 ft 443 kts 323°
2026-04-25 13:34 28.39311 20.83434 34026 ft 441 kts 323°
2026-04-25 13:35 28.44708 20.80114 34033 ft 441 kts 323°
2026-04-25 13:35 28.50104 20.76806 34034 ft 441 kts 323°
2026-04-25 13:36 28.55502 20.73506 34032 ft 440 kts 323°
2026-04-25 13:36 28.60905 20.70203 34024 ft 440 kts 323°
2026-04-25 13:37 28.66291 20.66909 34024 ft 439 kts 323°
2026-04-25 13:37 28.71635 20.63635 34028 ft 439 kts 323°
2026-04-25 13:38 28.77028 20.60326 34033 ft 440 kts 323°
2026-04-25 13:38 28.82423 20.57012 34026 ft 440 kts 324°
2026-04-25 13:39 28.87817 20.53697 34024 ft 440 kts 324°
2026-04-25 13:39 28.93172 20.50401 34027 ft 440 kts 323°
2026-04-25 13:40 28.98553 20.47085 34041 ft 439 kts 324°
2026-04-25 13:40 29.03929 20.43768 34031 ft 439 kts 324°
2026-04-25 13:41 29.09302 20.40449 34026 ft 439 kts 324°
2026-04-25 13:41 29.14669 20.37129 34029 ft 438 kts 324°
2026-04-25 13:42 29.20032 20.33809 34027 ft 438 kts 324°
2026-04-25 13:42 29.25388 20.30488 34035 ft 438 kts 324°
2026-04-25 13:43 29.30708 20.27185 34032 ft 437 kts 324°
2026-04-25 13:43 29.36058 20.23860 34030 ft 437 kts 324°
2026-04-25 13:44 29.41419 20.20524 34039 ft 438 kts 324°
2026-04-25 13:44 29.46769 20.17192 34036 ft 438 kts 324°
2026-04-25 13:45 29.52122 20.13854 34038 ft 437 kts 324°
2026-04-25 13:45 29.57467 20.10516 34037 ft 437 kts 324°
2026-04-25 13:46 29.62807 20.07177 34039 ft 436 kts 324°
2026-04-25 13:46 29.68134 20.03842 34073 ft 436 kts 324°
2026-04-25 13:47 29.73427 20.00524 34056 ft 435 kts 324°
2026-04-25 13:47 29.78753 19.97182 34050 ft 435 kts 324°
2026-04-25 13:48 29.84061 19.93848 34054 ft 434 kts 324°
2026-04-25 13:48 29.89360 19.90515 34057 ft 434 kts 324°
2026-04-25 13:49 29.94660 19.87176 34055 ft 433 kts 324°
2026-04-25 13:49 29.99923 19.83857 34082 ft 433 kts 324°
2026-04-25 13:50 30.05207 19.80520 34064 ft 433 kts 324°
2026-04-25 13:50 30.10493 19.77180 34068 ft 432 kts 324°
2026-04-25 13:51 30.15759 19.73847 34070 ft 431 kts 324°
2026-04-25 13:51 30.21015 19.70516 34068 ft 431 kts 324°
2026-04-25 13:52 30.26272 19.67179 34066 ft 430 kts 324°
2026-04-25 13:52 30.31490 19.63864 34086 ft 431 kts 324°
2026-04-25 13:53 30.36739 19.60525 34080 ft 431 kts 324°
2026-04-25 13:53 30.41991 19.57180 34077 ft 430 kts 324°
2026-04-25 13:54 30.47201 19.53759 34078 ft 429 kts 323°
2026-04-25 13:54 30.52383 19.50295 34081 ft 429 kts 323°
2026-04-25 13:55 30.57560 19.46835 34082 ft 429 kts 323°
2026-04-25 13:55 30.62741 19.43378 34092 ft 429 kts 323°
2026-04-25 13:56 30.67889 19.39944 34081 ft 429 kts 324°
2026-04-25 13:56 30.73074 19.36481 34084 ft 429 kts 323°
2026-04-25 13:57 30.78256 19.33015 34084 ft 429 kts 323°
2026-04-25 13:57 30.83434 19.29548 34084 ft 429 kts 323°
2026-04-25 13:58 30.88610 19.26077 34117 ft 429 kts 323°
2026-04-25 13:58 30.93794 19.22596 34097 ft 431 kts 323°
2026-04-25 13:59 30.98961 19.19123 34094 ft 431 kts 323°
2026-04-25 13:59 31.04166 19.15620 34085 ft 432 kts 323°
2026-04-25 14:00 31.08530 19.12680 34073 ft 432 kts 323°
2026-04-25 14:00 31.13699 19.09193 34083 ft 432 kts 323°
2026-04-25 14:01 31.19783 19.05082 34091 ft 433 kts 324°
2026-04-25 14:01 31.25001 19.01552 34096 ft 433 kts 324°
2026-04-25 14:02 31.30226 18.98012 34092 ft 434 kts 324°
2026-04-25 14:02 31.35457 18.94465 34090 ft 435 kts 324°
2026-04-25 14:03 31.40699 18.90905 34090 ft 435 kts 324°
2026-04-25 14:03 31.45905 18.87365 34090 ft 435 kts 324°
2026-04-25 14:04 31.51148 18.83794 34104 ft 436 kts 324°
2026-04-25 14:04 31.56405 18.80210 34095 ft 437 kts 324°
2026-04-25 14:05 31.61659 18.76622 34089 ft 437 kts 324°
2026-04-25 14:05 31.66912 18.73031 34096 ft 436 kts 324°
2026-04-25 14:06 31.72130 18.69462 34095 ft 436 kts 324°
2026-04-25 14:06 31.77374 18.65878 34109 ft 437 kts 325°
2026-04-25 14:07 31.82632 18.62278 34086 ft 437 kts 325°
2026-04-25 14:07 31.87896 18.58669 34106 ft 437 kts 325°
2026-04-25 14:08 31.93160 18.55054 34106 ft 438 kts 325°
2026-04-25 14:08 31.98425 18.51433 34091 ft 438 kts 325°
2026-04-25 14:09 32.03662 18.47827 34090 ft 438 kts 325°
2026-04-25 14:09 32.08930 18.44194 34084 ft 438 kts 325°
2026-04-25 14:10 32.14201 18.40555 34099 ft 438 kts 326°
2026-04-25 14:10 32.19589 18.37140 34097 ft 440 kts 328°
2026-04-25 14:11 32.25006 18.33870 34098 ft 440 kts 328°
2026-04-25 14:11 32.30448 18.30571 34098 ft 439 kts 328°
2026-04-25 14:12 32.35888 18.27248 34092 ft 440 kts 328°
2026-04-25 14:12 32.41326 18.23915 34112 ft 440 kts 328°
2026-04-25 14:13 32.46766 18.20575 34095 ft 440 kts 328°
2026-04-25 14:13 32.52209 18.17230 34097 ft 441 kts 328°
2026-04-25 14:14 32.57654 18.13879 34092 ft 441 kts 328°
2026-04-25 14:14 32.63106 18.10519 34120 ft 442 kts 329°
2026-04-25 14:15 32.68559 18.07130 34103 ft 443 kts 328°
2026-04-25 14:15 32.73915 18.03589 34101 ft 444 kts 327°
2026-04-25 14:16 32.79303 17.99985 34112 ft 445 kts 327°
2026-04-25 14:16 32.84714 17.96384 34105 ft 446 kts 327°
2026-04-25 14:17 32.89223 17.93391 34098 ft 446 kts 328°
2026-04-25 14:17 32.94644 17.89789 34102 ft 447 kts 328°
2026-04-25 14:18 33.00076 17.86176 34107 ft 447 kts 328°
2026-04-25 14:18 33.05517 17.82550 34103 ft 448 kts 328°
2026-04-25 14:19 33.10955 17.78921 34103 ft 448 kts 328°
2026-04-25 14:19 33.16359 17.75308 34100 ft 448 kts 328°
2026-04-25 14:20 33.21803 17.71665 34109 ft 447 kts 329°
2026-04-25 14:20 33.27226 17.67991 34100 ft 447 kts 329°
2026-04-25 14:21 33.32621 17.64310 34103 ft 446 kts 329°
2026-04-25 14:21 33.38013 17.60631 34104 ft 446 kts 329°
2026-04-25 14:22 33.43374 17.56974 34103 ft 446 kts 329°
2026-04-25 14:22 33.48764 17.53290 34115 ft 445 kts 329°
2026-04-25 14:23 33.54151 17.49603 34107 ft 445 kts 329°
2026-04-25 14:23 33.59530 17.45917 34105 ft 445 kts 329°
2026-04-25 14:24 33.64900 17.42231 34105 ft 444 kts 329°
2026-04-25 14:24 33.70267 17.38540 34087 ft 444 kts 329°
2026-04-25 14:25 33.75584 17.34880 34118 ft 443 kts 329°
2026-04-25 14:25 33.80939 17.31188 34105 ft 443 kts 329°
2026-04-25 14:26 33.86287 17.27495 34107 ft 443 kts 329°
2026-04-25 14:26 33.91641 17.23793 34109 ft 443 kts 329°
2026-04-25 14:27 33.96995 17.20086 34107 ft 444 kts 329°
2026-04-25 14:27 34.02315 17.16396 34109 ft 444 kts 329°
2026-04-25 14:28 34.07674 17.12676 34105 ft 445 kts 329°
2026-04-25 14:28 34.13054 17.08934 34112 ft 447 kts 329°
2026-04-25 14:29 34.18447 17.05178 34105 ft 449 kts 329°
2026-04-25 14:29 34.23858 17.01402 34104 ft 448 kts 329°
2026-04-25 14:30 34.29255 16.97632 34112 ft 447 kts 329°
2026-04-25 14:30 34.37650 16.92726 34120 ft 448 kts 338°
2026-04-25 14:31 34.43479 16.90100 34113 ft 449 kts 338°
2026-04-25 14:31 34.49353 16.87431 34110 ft 450 kts 338°
2026-04-25 14:32 34.55217 16.84741 34113 ft 451 kts 338°
2026-04-25 14:32 34.61096 16.82032 34107 ft 452 kts 339°
2026-04-25 14:33 34.66987 16.79312 34108 ft 453 kts 339°
2026-04-25 14:33 34.72857 16.76599 34113 ft 454 kts 339°
2026-04-25 14:34 34.78762 16.73865 34112 ft 454 kts 339°
2026-04-25 14:34 34.84670 16.71126 34111 ft 454 kts 339°
2026-04-25 14:35 34.90584 16.68381 34100 ft 453 kts 338°
2026-04-25 14:35 34.96480 16.65639 34103 ft 452 kts 338°
2026-04-25 14:36 35.02313 16.62922 34104 ft 451 kts 338°
2026-04-25 14:36 35.08164 16.60193 34108 ft 449 kts 338°
2026-04-25 14:37 35.14012 16.57461 34102 ft 450 kts 339°
2026-04-25 14:37 35.19868 16.54719 34114 ft 451 kts 339°
2026-04-25 14:38 35.25746 16.51965 34118 ft 452 kts 339°
2026-04-25 14:38 35.31637 16.49200 34108 ft 454 kts 339°
2026-04-25 14:39 35.37539 16.46425 34106 ft 455 kts 339°
2026-04-25 14:39 35.43426 16.43647 34106 ft 457 kts 339°
2026-04-25 14:40 35.49379 16.40844 34116 ft 459 kts 339°
2026-04-25 14:40 35.55358 16.38021 34112 ft 461 kts 339°
2026-04-25 14:41 35.61357 16.35184 34110 ft 462 kts 339°
2026-04-25 14:41 35.67368 16.32336 34112 ft 463 kts 339°
2026-04-25 14:42 35.72369 16.29963 34109 ft 464 kts 339°
2026-04-25 14:42 35.79382 16.26629 34095 ft 465 kts 339°
2026-04-25 14:43 35.85428 16.23750 34108 ft 466 kts 339°
2026-04-25 14:43 35.91475 16.20866 34102 ft 466 kts 340°
2026-04-25 14:44 35.97531 16.17975 34107 ft 467 kts 339°
2026-04-25 14:44 36.03595 16.15065 34104 ft 468 kts 339°
2026-04-25 14:45 36.09666 16.12157 34105 ft 468 kts 339°
2026-04-25 14:45 36.15746 16.09238 34099 ft 469 kts 340°
2026-04-25 14:46 36.21839 16.06310 34110 ft 470 kts 340°
2026-04-25 14:46 36.27938 16.03373 34104 ft 471 kts 340°
2026-04-25 14:47 36.33013 16.00924 34104 ft 471 kts 340°
2026-04-25 14:47 36.40114 15.97488 34100 ft 471 kts 339°
2026-04-25 14:48 36.46235 15.94527 34101 ft 471 kts 339°
2026-04-25 14:48 36.52151 15.90999 34100 ft 473 kts 329°
2026-04-25 14:49 36.57605 15.86397 34103 ft 474 kts 326°
2026-04-25 14:49 36.63013 15.81755 34101 ft 475 kts 327°
2026-04-25 14:50 36.68467 15.77109 34093 ft 475 kts 327°
2026-04-25 14:50 36.73934 15.72464 34103 ft 476 kts 327°
2026-04-25 14:51 36.79417 15.67809 34097 ft 477 kts 327°
2026-04-25 14:51 36.84918 15.63133 34079 ft 478 kts 326°
2026-04-25 14:52 36.90416 15.58451 34093 ft 478 kts 326°
2026-04-25 14:52 36.94979 15.54550 34083 ft 478 kts 327°
2026-04-25 14:53 37.01372 15.49082 34090 ft 479 kts 327°
2026-04-25 14:53 37.06872 15.44372 34082 ft 479 kts 327°
2026-04-25 14:54 37.12374 15.39650 34081 ft 479 kts 327°
2026-04-25 14:54 37.17881 15.34915 34083 ft 479 kts 327°
2026-04-25 14:55 37.23383 15.30175 34084 ft 480 kts 327°
2026-04-25 14:55 37.28853 15.25454 34068 ft 480 kts 326°
2026-04-25 14:56 37.34354 15.20697 34078 ft 480 kts 327°
2026-04-25 14:56 37.39858 15.15930 34075 ft 480 kts 327°
2026-04-25 14:57 37.45356 15.11159 34078 ft 480 kts 326°
2026-04-25 14:57 37.50865 15.06370 34079 ft 481 kts 327°
2026-04-25 14:58 37.56372 15.01573 34073 ft 481 kts 327°
2026-04-25 14:58 37.61840 14.96802 34086 ft 481 kts 327°
2026-04-25 14:59 37.67339 14.91996 34076 ft 480 kts 326°
2026-04-25 14:59 37.72831 14.87185 34080 ft 480 kts 326°
2026-04-25 15:00 37.78311 14.82375 34087 ft 480 kts 326°
2026-04-25 15:00 37.83795 14.77556 34098 ft 480 kts 326°
2026-04-25 15:01 37.89284 14.72721 34088 ft 481 kts 326°
2026-04-25 15:01 37.94739 14.67894 34099 ft 482 kts 325°
2026-04-25 15:02 38.00121 14.62821 34095 ft 482 kts 324°
2026-04-25 15:02 38.05464 14.57655 34111 ft 483 kts 324°
2026-04-25 15:03 38.10825 14.52490 34104 ft 484 kts 324°
2026-04-25 15:03 38.16196 14.47339 34114 ft 484 kts 324°
2026-04-25 15:04 38.21572 14.42185 34116 ft 484 kts 324°
2026-04-25 15:04 38.26946 14.37020 34115 ft 484 kts 324°
2026-04-25 15:05 38.31410 14.32724 34118 ft 484 kts 324°
2026-04-25 15:06 38.40346 14.24099 34121 ft 484 kts 324°
2026-04-25 15:06 38.44813 14.19780 34118 ft 484 kts 323°
2026-04-25 15:07 38.50188 14.14573 34122 ft 484 kts 323°
2026-04-25 15:07 38.55549 14.09368 34123 ft 484 kts 323°
2026-04-25 15:08 38.60919 14.04145 34120 ft 484 kts 323°
2026-04-25 15:08 38.66243 13.98956 34120 ft 485 kts 323°
2026-04-25 15:09 38.71604 13.93720 34123 ft 485 kts 323°
2026-04-25 15:09 38.79648 13.85846 34122 ft 485 kts 323°
2026-04-25 15:10 38.85010 13.80583 34123 ft 485 kts 323°
2026-04-25 15:11 38.93075 13.72650 34122 ft 486 kts 323°
2026-04-25 15:11 38.98406 13.67394 34123 ft 486 kts 323°
2026-04-25 15:12 39.06457 13.59438 34123 ft 487 kts 323°
2026-04-25 15:12 39.10925 13.55011 34123 ft 487 kts 323°
2026-04-25 15:13 39.19887 13.46110 34130 ft 487 kts 322°
2026-04-25 15:14 39.25253 13.40765 34112 ft 487 kts 322°
2026-04-25 15:14 39.30617 13.35415 34130 ft 487 kts 322°
2026-04-25 15:15 39.35984 13.30046 34117 ft 488 kts 322°
2026-04-25 15:15 39.41319 13.24701 34127 ft 488 kts 322°
2026-04-25 15:16 39.46687 13.19313 34128 ft 488 kts 322°
2026-04-25 15:16 39.54738 13.11211 34126 ft 488 kts 322°
2026-04-25 15:17 39.62917 13.03307 34126 ft 489 kts 326°
2026-04-25 15:18 39.68605 12.98463 34111 ft 489 kts 327°
2026-04-25 15:18 39.77153 12.91210 34115 ft 489 kts 327°
2026-04-25 15:19 39.81871 12.87162 34120 ft 490 kts 327°
2026-04-25 15:19 39.88476 12.81465 34118 ft 490 kts 326°
2026-04-25 15:20 39.94169 12.76542 34116 ft 490 kts 326°
2026-04-25 15:20 39.99848 12.71621 34115 ft 490 kts 326°
2026-04-25 15:21 40.05521 12.66698 34120 ft 489 kts 326°
2026-04-25 15:21 40.11153 12.61801 34117 ft 489 kts 326°
2026-04-25 15:22 40.16815 12.56870 34112 ft 488 kts 326°
2026-04-25 15:22 40.22459 12.51942 34115 ft 488 kts 326°
2026-04-25 15:23 40.28113 12.46996 34117 ft 488 kts 326°
2026-04-25 15:23 40.33761 12.42045 34121 ft 488 kts 326°
2026-04-25 15:24 40.39413 12.37082 34119 ft 488 kts 326°
2026-04-25 15:24 40.44103 12.32950 34109 ft 488 kts 326°
2026-04-25 15:25 40.50695 12.27136 34113 ft 488 kts 326°
2026-04-25 15:25 40.56300 12.22180 34112 ft 488 kts 326°
2026-04-25 15:26 40.61942 12.17186 34112 ft 488 kts 326°
2026-04-25 15:26 40.67586 12.12179 34116 ft 489 kts 326°
2026-04-25 15:27 40.73225 12.07165 34114 ft 489 kts 326°
2026-04-25 15:28 40.81643 11.99659 34108 ft 488 kts 326°
2026-04-25 15:28 40.87279 11.94620 34112 ft 488 kts 326°
2026-04-25 15:29 40.92903 11.89581 34113 ft 488 kts 326°
2026-04-25 15:29 40.98515 11.84544 34105 ft 487 kts 326°
2026-04-25 15:30 41.04129 11.79493 34106 ft 488 kts 326°
2026-04-25 15:30 41.09750 11.74426 34114 ft 488 kts 326°
2026-04-25 15:31 41.15329 11.69386 34113 ft 488 kts 326°
2026-04-25 15:31 41.20944 11.64303 34109 ft 488 kts 326°
2026-04-25 15:32 41.26558 11.59210 34109 ft 488 kts 326°
2026-04-25 15:32 41.32168 11.54109 34104 ft 488 kts 326°
2026-04-25 15:33 41.40551 11.46467 34104 ft 487 kts 326°
2026-04-25 15:33 41.46132 11.41366 34101 ft 486 kts 326°
2026-04-25 15:34 41.51706 11.36260 34109 ft 486 kts 325°
2026-04-25 15:34 41.56339 11.32009 34108 ft 486 kts 325°
2026-04-25 15:35 41.65587 11.23498 34100 ft 485 kts 325°
2026-04-25 15:36 41.73901 11.15820 34105 ft 483 kts 325°
2026-04-25 15:36 41.79430 11.10702 34106 ft 483 kts 325°
2026-04-25 15:37 41.84952 11.05579 34100 ft 482 kts 325°
2026-04-25 15:37 41.90468 11.00448 34108 ft 482 kts 325°
2026-04-25 15:38 41.95944 10.95342 34106 ft 482 kts 325°
2026-04-25 15:38 42.01444 10.90201 34099 ft 481 kts 325°
2026-04-25 15:39 42.06939 10.85056 34100 ft 481 kts 325°
2026-04-25 15:39 42.12426 10.79906 34104 ft 481 kts 325°
2026-04-25 15:40 42.16096 10.76455 34103 ft 480 kts 325°
2026-04-25 15:40 42.23383 10.69589 34103 ft 479 kts 325°
2026-04-25 15:41 42.28852 10.64423 34100 ft 479 kts 324°
2026-04-25 15:41 42.34309 10.59257 34100 ft 479 kts 324°
2026-04-25 15:42 42.39734 10.54111 34101 ft 479 kts 325°
2026-04-25 15:42 42.45187 10.48926 34105 ft 479 kts 325°
2026-04-25 15:43 42.50642 10.43728 34105 ft 479 kts 325°
2026-04-25 15:43 42.56092 10.38525 34105 ft 479 kts 324°
2026-04-25 15:44 42.61537 10.33314 34102 ft 479 kts 324°
2026-04-25 15:44 42.66984 10.28090 34102 ft 478 kts 324°
2026-04-25 15:45 42.72385 10.22899 34106 ft 478 kts 324°
2026-04-25 15:45 42.76009 10.19409 34103 ft 477 kts 324°
2026-04-25 15:46 42.83215 10.12455 34103 ft 476 kts 324°
2026-04-25 15:46 42.88622 10.07224 34103 ft 476 kts 324°
2026-04-25 15:47 42.94013 10.01996 34101 ft 475 kts 324°
2026-04-25 15:47 42.99406 9.96757 34100 ft 475 kts 324°
2026-04-25 15:48 43.04787 9.91516 34108 ft 475 kts 323°
2026-04-25 15:48 43.10170 9.86262 34102 ft 475 kts 323°
2026-04-25 15:49 43.15506 9.81042 34104 ft 474 kts 323°
2026-04-25 15:49 43.20874 9.75781 34099 ft 474 kts 323°
2026-04-25 15:50 43.26234 9.70514 34104 ft 473 kts 323°
2026-04-25 15:50 43.31580 9.65250 34102 ft 472 kts 323°
2026-04-25 15:51 43.35110 9.61768 34102 ft 472 kts 323°
2026-04-25 15:51 43.42217 9.54741 34100 ft 471 kts 323°
2026-04-25 15:52 43.47536 9.49469 34108 ft 471 kts 323°
2026-04-25 15:52 43.52844 9.44196 34100 ft 470 kts 323°
2026-04-25 15:53 43.58146 9.38918 34097 ft 469 kts 322°
2026-04-25 15:53 43.63440 9.33635 34095 ft 469 kts 322°
2026-04-25 15:54 43.68726 9.28349 34100 ft 469 kts 322°
2026-04-25 15:54 43.73965 9.23097 34088 ft 468 kts 322°
2026-04-25 15:55 43.79236 9.17803 34089 ft 468 kts 322°
2026-04-25 15:55 43.83648 9.13361 34089 ft 468 kts 322°
2026-04-25 15:56 43.88907 9.08056 34088 ft 467 kts 322°
2026-04-25 15:56 43.94124 9.02784 34082 ft 467 kts 322°
2026-04-25 15:57 43.99388 8.97413 34087 ft 466 kts 322°
2026-04-25 15:57 44.04595 8.92057 34080 ft 466 kts 322°
2026-04-25 15:58 44.09767 8.86726 34088 ft 465 kts 322°
2026-04-25 15:58 44.14978 8.81347 34083 ft 464 kts 322°
2026-04-25 15:59 44.20160 8.75988 34077 ft 464 kts 321°
2026-04-25 15:59 44.25340 8.70621 34077 ft 463 kts 321°
2026-04-25 16:00 44.29638 8.66157 34077 ft 462 kts 321°
2026-04-25 16:00 44.35629 8.59922 34074 ft 461 kts 321°
2026-04-25 16:01 44.40769 8.54559 34073 ft 460 kts 321°
2026-04-25 16:01 44.45902 8.49192 34053 ft 460 kts 321°
2026-04-25 16:02 44.51009 8.43840 34050 ft 460 kts 321°
2026-04-25 16:02 44.56129 8.38462 34039 ft 460 kts 321°
2026-04-25 16:03 44.61248 8.33071 34027 ft 460 kts 321°
2026-04-25 16:03 44.66374 8.27664 34034 ft 461 kts 321°
2026-04-25 16:04 44.71505 8.22237 34040 ft 462 kts 321°
2026-04-25 16:04 44.76606 8.16831 34023 ft 462 kts 321°
2026-04-25 16:05 44.81735 8.11381 34005 ft 461 kts 321°
2026-04-25 16:06 44.89406 8.03210 34001 ft 460 kts 321°
2026-04-25 16:06 44.94503 7.97764 33998 ft 460 kts 321°
2026-04-25 16:07 44.99604 7.92301 34002 ft 459 kts 321°
2026-04-25 16:07 45.04657 7.86877 33999 ft 459 kts 321°
2026-04-25 16:08 45.09754 7.81394 33990 ft 460 kts 321°
2026-04-25 16:08 45.14849 7.75901 33993 ft 460 kts 321°
2026-04-25 16:09 45.19938 7.70399 33996 ft 459 kts 321°
2026-04-25 16:09 45.25016 7.64898 33994 ft 460 kts 321°
2026-04-25 16:10 45.30071 7.59410 33996 ft 460 kts 321°
2026-04-25 16:10 45.35154 7.53880 33810 ft 463 kts 321°
2026-04-25 16:10 45.37745 7.51054 32922 ft 472 kts 321°
2026-04-25 16:11 45.40342 7.48218 32353 ft 467 kts 321°
2026-04-25 16:11 45.42903 7.45419 31806 ft 461 kts 321°
2026-04-25 16:11 45.45431 7.42653 31253 ft 456 kts 321°
2026-04-25 16:11 45.47935 7.39912 30735 ft 451 kts 321°
2026-04-25 16:12 45.50407 7.37201 30204 ft 447 kts 322°
2026-04-25 16:12 45.52856 7.34513 29619 ft 443 kts 322°
2026-04-25 16:12 45.55285 7.31841 29101 ft 438 kts 322°
2026-04-25 16:12 45.56879 7.30085 28729 ft 436 kts 322°
2026-04-25 16:13 45.60070 7.26573 28034 ft 431 kts 322°
2026-04-25 16:13 45.62438 7.23966 27507 ft 427 kts 322°
2026-04-25 16:13 45.64780 7.21389 26974 ft 424 kts 323°
2026-04-25 16:13 45.67190 7.18998 26473 ft 420 kts 327°
2026-04-25 16:14 45.69653 7.16764 25985 ft 416 kts 328°
2026-04-25 16:14 45.72066 7.14596 25401 ft 413 kts 328°
2026-04-25 16:14 45.74483 7.12400 24930 ft 409 kts 327°
2026-04-25 16:14 45.76874 7.10213 24454 ft 407 kts 328°
2026-04-25 16:15 45.79234 7.07988 23953 ft 405 kts 324°
2026-04-25 16:15 45.81393 7.05380 23445 ft 405 kts 316°
2026-04-25 16:15 45.83333 7.02468 22909 ft 403 kts 312°
2026-04-25 16:15 45.85041 6.99294 22402 ft 401 kts 306°
2026-04-25 16:16 45.86591 6.95994 21932 ft 397 kts 306°
2026-04-25 16:16 45.88120 6.92723 21509 ft 393 kts 306°
2026-04-25 16:16 45.89622 6.89529 21035 ft 391 kts 306°
2026-04-25 16:16 45.91143 6.86310 20581 ft 388 kts 306°
2026-04-25 16:17 45.92663 6.83102 20078 ft 386 kts 307°
2026-04-25 16:17 45.94163 6.79935 19664 ft 382 kts 307°
2026-04-25 16:17 45.95657 6.76787 19195 ft 380 kts 307°
2026-04-25 16:17 45.97133 6.73641 18760 ft 379 kts 306°
2026-04-25 16:18 45.98598 6.70475 18244 ft 379 kts 306°
2026-04-25 16:18 45.99069 6.69454 18094 ft 378 kts 306°
2026-04-25 16:18 46.01491 6.64210 17281 ft 377 kts 306°
2026-04-25 16:18 46.02940 6.61079 16797 ft 376 kts 306°
2026-04-25 16:19 46.04380 6.57958 16359 ft 373 kts 306°
2026-04-25 16:19 46.05820 6.54850 15915 ft 371 kts 306°
2026-04-25 16:19 46.07272 6.51781 15464 ft 372 kts 306°
2026-04-25 16:20 46.10217 6.45579 14531 ft 374 kts 306°
2026-04-25 16:20 46.11655 6.42534 14099 ft 361 kts 306°
2026-04-25 16:20 46.14416 6.36689 13719 ft 345 kts 306°
2026-04-25 16:21 46.15719 6.33918 13523 ft 322 kts 307°
2026-04-25 16:21 46.17203 6.31688 13352 ft 299 kts 329°
2026-04-25 16:21 46.19063 6.30600 13258 ft 284 kts 351°
2026-04-25 16:21 46.21026 6.30513 13011 ft 284 kts
2026-04-25 16:22 46.22976 6.31163 12699 ft 293 kts 19°
2026-04-25 16:22 46.24775 6.32599 12330 ft 302 kts 42°
2026-04-25 16:22 46.26229 6.34815 12025 ft 307 kts 46°
2026-04-25 16:22 46.27716 6.37085 11724 ft 312 kts 45°
2026-04-25 16:23 46.29216 6.39321 11389 ft 306 kts 45°
2026-04-25 16:23 46.30686 6.41499 10969 ft 299 kts 45°
2026-04-25 16:23 46.32134 6.43644 10605 ft 295 kts 45°
2026-04-25 16:23 46.33535 6.45722 10308 ft 289 kts 45°
2026-04-25 16:24 46.34925 6.47784 10189 ft 286 kts 45°
2026-04-25 16:24 46.36329 6.49865 9917 ft 292 kts 45°
2026-04-25 16:24 46.37767 6.52002 9625 ft 297 kts 45°
2026-04-25 16:24 46.39207 6.54117 9278 ft 294 kts 41°
2026-04-25 16:25 46.40938 6.55535 8710 ft 283 kts 10°
2026-04-25 16:25 46.41588 6.55663 8509 ft 278 kts 359°
2026-04-25 16:25 46.44477 6.53985 7920 ft 273 kts 318°
2026-04-25 16:25 46.45730 6.51969 7674 ft 264 kts 304°
2026-04-25 16:26 46.46472 6.49639 7514 ft 248 kts 280°
2026-04-25 16:26 46.46680 6.47239 7372 ft 234 kts 275°
2026-04-25 16:26 46.46459 6.44961 7067 ft 227 kts 243°
2026-04-25 16:26 46.45534 6.43131 6935 ft 229 kts 230°
2026-04-25 16:27 46.44439 6.41381 6667 ft 238 kts 228°
2026-04-25 16:27 46.43284 6.39636 6372 ft 241 kts 227°
2026-04-25 16:27 46.42133 6.37931 6035 ft 237 kts 227°
2026-04-25 16:27 46.40990 6.36248 5724 ft 231 kts 228°
2026-04-25 16:28 46.39877 6.34602 5423 ft 227 kts 227°
2026-04-25 16:28 46.38773 6.32967 5139 ft 227 kts 228°
2026-04-25 16:28 46.37663 6.31325 4847 ft 229 kts 227°
2026-04-25 16:28 46.36549 6.29677 4546 ft 230 kts 227°
2026-04-25 16:29 46.35451 6.28058 4261 ft 220 kts 228°
2026-04-25 16:29 46.34400 6.26503 3941 ft 210 kts 227°
2026-04-25 16:29 46.33400 6.25030 3667 ft 199 kts 228°
2026-04-25 16:29 46.32467 6.23652 3424 ft 188 kts 229°
2026-04-25 16:30 46.31572 6.22327 3176 ft 181 kts 228°
2026-04-25 16:30 46.30697 6.21040 2938 ft 175 kts 228°
2026-04-25 16:30 46.29850 6.19789 2731 ft 173 kts 228°
2026-04-25 16:30 46.29021 6.18565 2495 ft 166 kts 227°
2026-04-25 16:31 46.28239 6.17412 2324 ft 156 kts 225°
2026-04-25 16:31 46.27482 6.16298 2104 ft 156 kts 224°
2026-04-25 16:31 46.26723 6.15182 1863 ft 155 kts 225°
2026-04-25 16:31 46.25965 6.14062 1689 ft 155 kts 224°
2026-04-25 16:32 46.25214 6.12970 1454 ft 151 kts 226°
2026-04-25 16:32 46.24509 6.11928 1374 ft 134 kts 225°
2026-04-25 16:32 46.24024 6.11217 1379 ft 59 kts 225°
2026-04-25 16:32 46.23817 6.10911 1381 ft 32 kts 225°
2026-04-25 16:33 46.23682 6.10771 1383 ft 21 kts 204°
2026-04-25 16:33 46.23587 6.10724 1384 ft 13 kts 196°
2026-04-25 16:33 46.23537 6.10704 1389 ft 5 kts 195°
2026-04-25 16:33 46.23532 6.10702 1389 ft 0 kts 195°
2026-04-25 16:34 46.23514 6.10695 1401 ft 3 kts 194°
2026-04-25 16:35 46.23490 6.10698 1400 ft 3 kts 149°
2026-04-25 16:35 46.23480 6.10727 1406 ft 3 kts 98°
2026-04-25 16:35 46.23488 6.10757 1405 ft 3 kts 59°
2026-04-25 16:35 46.23504 6.10783 1406 ft 3 kts 48°
2026-04-25 16:36 46.23536 6.10832 1401 ft 10 kts 46°
2026-04-25 16:36 46.23551 6.10856 1403 ft 10 kts 46°
2026-04-25 16:36 46.23629 6.10967 1404 ft 9 kts 45°
2026-04-25 16:36 46.23675 6.11035 1403 ft 10 kts 45°
2026-04-25 16:37 46.23728 6.11115 1384 ft 13 kts 45°
2026-04-25 16:37 46.23782 6.11194 1381 ft 9 kts 45°
2026-04-25 16:37 46.23821 6.11249 1380 ft 6 kts 45°
2026-04-25 16:37 46.23832 6.11269 1377 ft 3 kts 63°
2026-04-25 16:38 46.23829 6.11290 1378 ft 2 kts 111°
2026-04-25 16:38 46.23821 6.11302 1380 ft 2 kts 135°
2026-04-25 16:38 46.23811 6.11316 1377 ft 2 kts 135°
2026-04-25 16:38 46.23801 6.11330 1382 ft 2 kts 135°
2026-04-25 16:39 46.23799 6.11333 1382 ft 0 kts 135°